Observation data for Aiken on 04/09/2020      Previous  Date  Next       Current Mesonet Observations  Soil Data  Daily Summary Page  Observations in Plain Language
KAI1 090500Z 06008KT 15/M01 A3002 RMK A01 T01481010  RH  034%=      5-min Rain = 0
KAI1 090501Z 05009KT 15/M01 A3002 RMK A01 T01491011  RH  033%=      5-min Rain = 0
KAI1 090502Z 06009KT 15/M01 A3002 RMK A01 T01491012  RH  033%=      5-min Rain = 0
KAI1 090503Z 06009KT 15/M01 A3002 RMK A01 T01501012  RH  033%=      5-min Rain = 0
KAI1 090504Z 05008KT 15/M01 A3002 RMK A01 T01511011  RH  033%=      5-min Rain = 0
KAI1 090505Z 05008KT 15/M01 A3002 RMK A01 T01521010  RH  033%=      5-min Rain = 0
KAI1 090506Z 05008KT 15/M01 A3002 RMK A01 T01521010  RH  033%=      5-min Rain = 0
KAI1 090507Z 05008KT 15/M01 A3002 RMK A01 T01521010  RH  033%=      5-min Rain = 0
KAI1 090508Z 05008KT 15/M01 A3002 RMK A01 T01521010  RH  033%=      5-min Rain = 0
KAI1 090509Z 06008KT 15/M01 A3003 RMK A01 T01521010  RH  033%=      5-min Rain = 0
KAI1 090510Z 06008KT 15/M01 A3003 RMK A01 T01521010  RH  033%=      5-min Rain = 0
KAI1 090511Z 06009KT 15/M01 A3003 RMK A01 T01521010  RH  033%=      5-min Rain = 0
KAI1 090512Z 06008KT 15/M01 A3003 RMK A01 T01521009  RH  033%=      5-min Rain = 0
KAI1 090513Z 05008KT 15/M01 A3003 RMK A01 T01531008  RH  033%=      5-min Rain = 0
KAI1 090514Z 05008KT 15/M01 A3003 RMK A01 T01511009  RH  033%=      5-min Rain = 0
KAI1 090515Z 05008KT 15/M01 A3003 RMK A01 T01491010  RH  034%=      5-min Rain = 0
KAI1 090516Z 05008KT 15/M01 A3003 RMK A01 T01491008  RH  034%=      5-min Rain = 0
KAI1 090517Z 05008KT 15/M01 A3003 RMK A01 T01491007  RH  034%=      5-min Rain = 0
KAI1 090518Z 06008KT 15/M01 A3003 RMK A01 T01491007  RH  034%=      5-min Rain = 0
KAI1 090519Z 06008KT 15/M01 A3003 RMK A01 T01491006  RH  035%=      5-min Rain = 0
KAI1 090520Z 06008KT 15/M00 A3003 RMK A01 T01491004  RH  035%=      5-min Rain = 0
KAI1 090521Z 06008KT 15/M00 A3003 RMK A01 T01501004  RH  035%=      5-min Rain = 0
KAI1 090522Z 06008KT 15/M00 A3002 RMK A01 T01491004  RH  035%=      5-min Rain = 0
KAI1 090523Z 06008KT 15/M00 A3002 RMK A01 T01501003  RH  035%=      5-min Rain = 0
KAI1 090524Z 06007KT 15/M00 A3003 RMK A01 T01491003  RH  035%=      5-min Rain = 0
KAI1 090525Z 07008KT 15/M00 A3003 RMK A01 T01491002  RH  035%=      5-min Rain = 0
KAI1 090526Z 07005KT 15/M00 A3003 RMK A01 T01481002  RH  036%=      5-min Rain = 0
KAI1 090527Z 07004KT 15/M00 A3003 RMK A01 T01481002  RH  036%=      5-min Rain = 0
KAI1 090528Z 07005KT 15/00 A3003 RMK A01 T014700-0  RH  037%=      5-min Rain = 0
KAI1 090529Z 07005KT 15/00 A3003 RMK A01 T01460000  RH  037%=      5-min Rain = 0
KAI1 090530Z 07005KT 15/00 A3003 RMK A01 T014500-0  RH  037%=      5-min Rain = 0
KAI1 090531Z 06005KT 15/00 A3003 RMK A01 T014500-0  RH  037%=      5-min Rain = 0
KAI1 090532Z 06005KT 15/00 A3002 RMK A01 T01450000  RH  037%=      5-min Rain = 0
KAI1 090533Z 06005KT 15/00 A3002 RMK A01 T01450000  RH  037%=      5-min Rain = 0
KAI1 090534Z 06005KT 14/00 A3002 RMK A01 T01440000  RH  037%=      5-min Rain = 0
KAI1 090535Z 06005KT 14/00 A3002 RMK A01 T01440001  RH  037%=      5-min Rain = 0
KAI1 090536Z 06005KT 14/00 A3002 RMK A01 T01440001  RH  038%=      5-min Rain = 0
KAI1 090537Z 06005KT 14/00 A3002 RMK A01 T01440002  RH  038%=      5-min Rain = 0
KAI1 090538Z 06005KT 14/00 A3002 RMK A01 T01430002  RH  038%=      5-min Rain = 0
KAI1 090539Z 06005KT 14/00 A3002 RMK A01 T01420002  RH  038%=      5-min Rain = 0
KAI1 090540Z 05004KT 14/00 A3002 RMK A01 T01420001  RH  038%=      5-min Rain = 0
KAI1 090541Z 05004KT 14/M00 A3002 RMK A01 T01401003  RH  037%=      5-min Rain = 0
KAI1 090542Z 03004KT 14/M01 A3002 RMK A01 T01381007  RH  037%=      5-min Rain = 0
KAI1 090543Z 03004KT 14/M01 A3002 RMK A01 T01361012  RH  036%=      5-min Rain = 0
KAI1 090544Z 05004KT 13/M01 A3002 RMK A01 T01331014  RH  036%=      5-min Rain = 0
KAI1 090545Z 04004KT 13/M01 A3002 RMK A01 T01321012  RH  037%=      5-min Rain = 0
KAI1 090546Z 05005KT 13/M01 A3002 RMK A01 T01311011  RH  037%=      5-min Rain = 0
KAI1 090547Z 05005KT 13/M01 A3002 RMK A01 T01291010  RH  038%=      5-min Rain = 0
KAI1 090548Z 05005KT 13/M01 A3002 RMK A01 T01291009  RH  039%=      5-min Rain = 0
KAI1 090549Z 05005KT 13/M01 A3002 RMK A01 T01291008  RH  039%=      5-min Rain = 0
KAI1 090550Z 05005KT 13/M01 A3002 RMK A01 T01301008  RH  039%=      5-min Rain = 0
KAI1 090551Z 05005KT 13/M01 A3002 RMK A01 T01311008  RH  038%=      5-min Rain = 0
KAI1 090552Z 05005KT 13/M01 A3002 RMK A01 T01311009  RH  038%=      5-min Rain = 0
KAI1 090553Z 06005KT 13/M01 A3002 RMK A01 T01311008  RH  038%=      5-min Rain = 0
KAI1 090554Z 06005KT 13/M01 A3002 RMK A01 T01311008  RH  038%=      5-min Rain = 0
KAI1 090555Z 06004KT 13/M01 A3002 RMK A01 T01311007  RH  038%=      5-min Rain = 0
KAI1 090556Z 07004KT 13/M01 A3002 RMK A01 T01301007  RH  039%=      5-min Rain = 0
KAI1 090557Z 07004KT 13/M01 A3002 RMK A01 T01301007  RH  039%=      5-min Rain = 0
KAI1 090558Z 08004KT 13/M01 A3002 RMK A01 T01301007  RH  039%=      5-min Rain = 0
KAI1 090559Z 09003KT 13/M01 A3002 RMK A01 T01301006  RH  039%=      5-min Rain = 0
KAI1 090600Z 11002KT 13/M00 A3003 RMK A01 T01301003  RH  040%=      5-min Rain = 0
KAI1 090601Z 15002KT 13/M00 A3003 RMK A01 T01301001  RH  041%=      5-min Rain = 0
KAI1 090602Z 17003KT 13/00 A3003 RMK A01 T01300002  RH  041%=      5-min Rain = 0
KAI1 090603Z 17003KT 13/00 A3003 RMK A01 T01290002  RH  042%=      5-min Rain = 0
KAI1 090604Z 17003KT 13/01 A3003 RMK A01 T01270005  RH  043%=      5-min Rain = 0
KAI1 090605Z 17004KT 12/01 A3003 RMK A01 T01240006  RH  044%=      5-min Rain = 0
KAI1 090606Z 18004KT 12/01 A3003 RMK A01 T01220006  RH  045%=      5-min Rain = 0
KAI1 090607Z 18004KT 12/01 A3003 RMK A01 T01200006  RH  046%=      5-min Rain = 0
KAI1 090608Z 18004KT 12/01 A3003 RMK A01 T01190008  RH  047%=      5-min Rain = 0
KAI1 090609Z 18004KT 12/01 A3003 RMK A01 T01170012  RH  049%=      5-min Rain = 0
KAI1 090610Z 18004KT 12/02 A3003 RMK A01 T01150016  RH  050%=      5-min Rain = 0
KAI1 090611Z 18004KT 11/02 A3003 RMK A01 T01140019  RH  052%=      5-min Rain = 0
KAI1 090612Z 19005KT 11/02 A3003 RMK A01 T01120019  RH  053%=      5-min Rain = 0
KAI1 090613Z 19005KT 11/02 A3003 RMK A01 T01110018  RH  053%=      5-min Rain = 0
KAI1 090614Z 18004KT 11/02 A3003 RMK A01 T01090021  RH  055%=      5-min Rain = 0
KAI1 090615Z 18003KT 11/02 A3003 RMK A01 T01090023  RH  055%=      5-min Rain = 0
KAI1 090616Z 17003KT 11/02 A3003 RMK A01 T01080023  RH  056%=      5-min Rain = 0
KAI1 090617Z 17003KT 11/02 A3003 RMK A01 T01080023  RH  056%=      5-min Rain = 0
KAI1 090618Z 16003KT 11/02 A3003 RMK A01 T01090024  RH  056%=      5-min Rain = 0
KAI1 090619Z 17002KT 11/02 A3003 RMK A01 T01090023  RH  055%=      5-min Rain = 0
KAI1 090620Z 16001KT 11/02 A3003 RMK A01 T01110019  RH  053%=      5-min Rain = 0
KAI1 090621Z 14001KT 11/01 A3003 RMK A01 T01120014  RH  051%=      5-min Rain = 0
KAI1 090622Z 14001KT 11/01 A3003 RMK A01 T01140014  RH  050%=      5-min Rain = 0
KAI1 090623Z 19000KT 12/01 A3003 RMK A01 T01150013  RH  050%=      5-min Rain = 0
KAI1 090624Z 12000KT 12/01 A3003 RMK A01 T01160013  RH  049%=      5-min Rain = 0
KAI1 090625Z 12001KT 12/01 A3003 RMK A01 T01200013  RH  048%=      5-min Rain = 0
KAI1 090626Z 10000KT 13/01 A3003 RMK A01 T01270014  RH  046%=      5-min Rain = 0
KAI1 090627Z 09001KT 13/01 A3003 RMK A01 T01300014  RH  045%=      5-min Rain = 0
KAI1 090628Z 08001KT 13/01 A3003 RMK A01 T01310014  RH  045%=      5-min Rain = 0
KAI1 090629Z 08001KT 13/01 A3003 RMK A01 T01290012  RH  045%=      5-min Rain = 0
KAI1 090630Z 07001KT 13/01 A3003 RMK A01 T01290012  RH  045%=      5-min Rain = 0
KAI1 090631Z 06001KT 13/01 A3003 RMK A01 T01300013  RH  045%=      5-min Rain = 0
KAI1 090632Z 07001KT 13/01 A3003 RMK A01 T01290014  RH  045%=      5-min Rain = 0
KAI1 090633Z 08001KT 13/01 A3003 RMK A01 T01280012  RH  045%=      5-min Rain = 0
KAI1 090634Z 08002KT 13/01 A3003 RMK A01 T01280013  RH  045%=      5-min Rain = 0
KAI1 090635Z 07001KT 13/01 A3003 RMK A01 T01270013  RH  046%=      5-min Rain = 0
KAI1 090636Z 07002KT 13/01 A3003 RMK A01 T01270012  RH  046%=      5-min Rain = 0
KAI1 090637Z 07002KT 13/01 A3003 RMK A01 T01280012  RH  045%=      5-min Rain = 0
KAI1 090638Z 08002KT 13/01 A3003 RMK A01 T01310013  RH  045%=      5-min Rain = 0
KAI1 090639Z 09002KT 13/01 A3003 RMK A01 T01320013  RH  044%=      5-min Rain = 0
KAI1 090640Z 10002KT 13/01 A3003 RMK A01 T01330012  RH  044%=      5-min Rain = 0
KAI1 090641Z 10002KT 13/01 A3003 RMK A01 T01330014  RH  044%=      5-min Rain = 0
KAI1 090642Z 12002KT 13/02 A3003 RMK A01 T01330017  RH  045%=      5-min Rain = 0
KAI1 090643Z 13002KT 13/02 A3003 RMK A01 T01310015  RH  045%=      5-min Rain = 0
KAI1 090644Z 14002KT 13/02 A3003 RMK A01 T01310015  RH  045%=      5-min Rain = 0
KAI1 090645Z 14003KT 13/02 A3003 RMK A01 T01320017  RH  046%=      5-min Rain = 0
KAI1 090646Z 13003KT 13/02 A3003 RMK A01 T01310018  RH  046%=      5-min Rain = 0
KAI1 090647Z 14003KT 13/02 A3003 RMK A01 T01300017  RH  046%=      5-min Rain = 0
KAI1 090648Z 13003KT 13/02 A3003 RMK A01 T01290015  RH  046%=      5-min Rain = 0
KAI1 090649Z 13004KT 13/01 A3003 RMK A01 T01290012  RH  045%=      5-min Rain = 0
KAI1 090650Z 13004KT 13/01 A3003 RMK A01 T01300012  RH  044%=      5-min Rain = 0
KAI1 090651Z 12004KT 13/01 A3003 RMK A01 T01310012  RH  044%=      5-min Rain = 0
KAI1 090652Z 12004KT 13/01 A3002 RMK A01 T01330012  RH  044%=      5-min Rain = 0
KAI1 090653Z 12004KT 13/01 A3002 RMK A01 T01340012  RH  043%=      5-min Rain = 0
KAI1 090654Z 12004KT 14/01 A3002 RMK A01 T01350013  RH  043%=      5-min Rain = 0
KAI1 090655Z 12004KT 14/01 A3002 RMK A01 T01350013  RH  043%=      5-min Rain = 0
KAI1 090656Z 12004KT 14/01 A3002 RMK A01 T01360013  RH  043%=      5-min Rain = 0
KAI1 090657Z 12004KT 14/01 A3002 RMK A01 T01370013  RH  043%=      5-min Rain = 0
KAI1 090658Z 12004KT 14/01 A3002 RMK A01 T01390014  RH  043%=      5-min Rain = 0
KAI1 090659Z 12005KT 14/01 A3002 RMK A01 T01400014  RH  042%=      5-min Rain = 0
KAI1 090700Z 13004KT 14/02 A3002 RMK A01 T01410015  RH  042%=      5-min Rain = 0
KAI1 090701Z 12004KT 14/02 A3002 RMK A01 T01420015  RH  042%=      5-min Rain = 0
KAI1 090702Z 12005KT 14/02 A3002 RMK A01 T01420016  RH  042%=      5-min Rain = 0
KAI1 090703Z 12005KT 14/02 A3002 RMK A01 T01420017  RH  043%=      5-min Rain = 0
KAI1 090704Z 11005KT 14/02 A3002 RMK A01 T01410017  RH  043%=      5-min Rain = 0
KAI1 090705Z 11005KT 14/02 A3002 RMK A01 T01410017  RH  043%=      5-min Rain = 0
KAI1 090706Z 11005KT 14/02 A3002 RMK A01 T01420018  RH  043%=      5-min Rain = 0
KAI1 090707Z 10005KT 14/02 A3002 RMK A01 T01430018  RH  043%=      5-min Rain = 0
KAI1 090708Z 11005KT 14/02 A3002 RMK A01 T01430017  RH  043%=      5-min Rain = 0
KAI1 090709Z 11005KT 14/02 A3002 RMK A01 T01430018  RH  043%=      5-min Rain = 0
KAI1 090710Z 10005KT 14/02 A3002 RMK A01 T01420018  RH  043%=      5-min Rain = 0
KAI1 090711Z 10005KT 14/02 A3002 RMK A01 T01420018  RH  043%=      5-min Rain = 0
KAI1 090712Z 10005KT 14/02 A3002 RMK A01 T01410019  RH  043%=      5-min Rain = 0
KAI1 090713Z 10006KT 14/02 A3002 RMK A01 T01410020  RH  044%=      5-min Rain = 0
KAI1 090714Z 09006KT 14/02 A3002 RMK A01 T01420023  RH  044%=      5-min Rain = 0
KAI1 090715Z 10008KT 15/03 A3002 RMK A01 T01450029  RH  045%=      5-min Rain = 0
KAI1 090716Z 09007KT 15/03 A3002 RMK A01 T01500033  RH  045%=      5-min Rain = 0
KAI1 090717Z 09007KT 15/04 A3002 RMK A01 T01540038  RH  046%=      5-min Rain = 0
KAI1 090718Z 09007KT 16/04 A3002 RMK A01 T01570039  RH  045%=      5-min Rain = 0
KAI1 090719Z 09008KT 16/04 A3002 RMK A01 T01580041  RH  045%=      5-min Rain = 0
KAI1 090720Z 09008KT 16/04 A3002 RMK A01 T01600042  RH  046%=      5-min Rain = 0
KAI1 090721Z 09008KT 16/04 A3002 RMK A01 T01600043  RH  046%=      5-min Rain = 0
KAI1 090722Z 09008KT 16/04 A3002 RMK A01 T01600044  RH  046%=      5-min Rain = 0
KAI1 090723Z 09009KT 16/04 A3002 RMK A01 T01600044  RH  046%=      5-min Rain = 0
KAI1 090724Z 09008KT 16/05 A3002 RMK A01 T01600045  RH  046%=      5-min Rain = 0
KAI1 090725Z 09008KT 16/05 A3002 RMK A01 T01600046  RH  046%=      5-min Rain = 0
KAI1 090726Z 09008KT 16/05 A3002 RMK A01 T01600046  RH  047%=      5-min Rain = 0
KAI1 090727Z 09008KT 16/05 A3002 RMK A01 T01600046  RH  047%=      5-min Rain = 0
KAI1 090728Z 10008KT 16/05 A3001 RMK A01 T01590046  RH  047%=      5-min Rain = 0
KAI1 090729Z 09008KT 16/05 A3001 RMK A01 T01580046  RH  047%=      5-min Rain = 0
KAI1 090730Z 09008KT 16/05 A3001 RMK A01 T01580046  RH  047%=      5-min Rain = 0
KAI1 090731Z 09008KT 16/05 A3001 RMK A01 T01580047  RH  048%=      5-min Rain = 0
KAI1 090732Z 09008KT 16/05 A3001 RMK A01 T01580047  RH  048%=      5-min Rain = 0
KAI1 090733Z 09007KT 16/05 A3001 RMK A01 T01580047  RH  048%=      5-min Rain = 0
KAI1 090734Z 09007KT 16/05 A3001 RMK A01 T01580048  RH  048%=      5-min Rain = 0
KAI1 090735Z 09008KT 16/05 A3001 RMK A01 T01570048  RH  048%=      5-min Rain = 0
KAI1 090736Z 09007KT 16/05 A3001 RMK A01 T01570048  RH  048%=      5-min Rain = 0
KAI1 090737Z 09007KT 16/05 A3001 RMK A01 T01560048  RH  048%=      5-min Rain = 0
KAI1 090738Z 09007KT 16/05 A3001 RMK A01 T01560048  RH  049%=      5-min Rain = 0
KAI1 090739Z 09007KT 16/05 A3001 RMK A01 T01560048  RH  049%=      5-min Rain = 0
KAI1 090740Z 09007KT 16/05 A3001 RMK A01 T01560048  RH  049%=      5-min Rain = 0
KAI1 090741Z 09007KT 16/05 A3001 RMK A01 T01560048  RH  049%=      5-min Rain = 0
KAI1 090742Z 08007KT 16/05 A3001 RMK A01 T01550048  RH  049%=      5-min Rain = 0
KAI1 090743Z 08007KT 16/05 A3001 RMK A01 T01550048  RH  049%=      5-min Rain = 0
KAI1 090744Z 09006KT 15/05 A3001 RMK A01 T01540048  RH  049%=      5-min Rain = 0
KAI1 090745Z 08006KT 16/05 A3001 RMK A01 T01550048  RH  049%=      5-min Rain = 0
KAI1 090746Z 09006KT 15/05 A3001 RMK A01 T01540047  RH  049%=      5-min Rain = 0
KAI1 090747Z 09006KT 15/05 A3001 RMK A01 T01540048  RH  049%=      5-min Rain = 0
KAI1 090748Z 09007KT 15/05 A3001 RMK A01 T01530047  RH  049%=      5-min Rain = 0
KAI1 090749Z 09006KT 15/05 A3001 RMK A01 T01530048  RH  049%=      5-min Rain = 0
KAI1 090750Z 09007KT 15/05 A3001 RMK A01 T01530047  RH  049%=      5-min Rain = 0
KAI1 090751Z 09006KT 15/05 A3001 RMK A01 T01530048  RH  049%=      5-min Rain = 0
KAI1 090752Z 09007KT 15/05 A3001 RMK A01 T01530048  RH  049%=      5-min Rain = 0
KAI1 090753Z 09006KT 15/05 A3001 RMK A01 T01530048  RH  049%=      5-min Rain = 0
KAI1 090754Z 09007KT 15/05 A3001 RMK A01 T01530048  RH  049%=      5-min Rain = 0
KAI1 090755Z 09007KT 15/05 A3001 RMK A01 T01530047  RH  049%=      5-min Rain = 0
KAI1 090756Z 09007KT 15/05 A3001 RMK A01 T01530048  RH  049%=      5-min Rain = 0
KAI1 090757Z 09007KT 15/05 A3001 RMK A01 T01530048  RH  049%=      5-min Rain = 0
KAI1 090758Z 09008KT 15/05 A3001 RMK A01 T01530048  RH  050%=      5-min Rain = 0
KAI1 090759Z 09008KT 15/05 A3001 RMK A01 T01530049  RH  050%=      5-min Rain = 0
KAI1 090800Z 09008KT 15/05 A3001 RMK A01 T01530048  RH  050%=      5-min Rain = 0
KAI1 090801Z 09009KT 15/05 A3001 RMK A01 T01530048  RH  049%=      5-min Rain = 0
KAI1 090802Z 09009KT 15/05 A3001 RMK A01 T01540048  RH  049%=      5-min Rain = 0
KAI1 090803Z 09009KT 15/05 A3001 RMK A01 T01540048  RH  049%=      5-min Rain = 0
KAI1 090804Z 09010KT 16/05 A3001 RMK A01 T01550048  RH  049%=      5-min Rain = 0
KAI1 090805Z 09009KT 16/05 A3001 RMK A01 T01550048  RH  049%=      5-min Rain = 0
KAI1 090806Z 09009KT 16/05 A30 RMK A01 T01560048  RH  048%=      5-min Rain = 0
KAI1 090807Z 09009KT 16/05 A3001 RMK A01 T01560048  RH  048%=      5-min Rain = 0
KAI1 090808Z 09010KT 16/05 A3001 RMK A01 T01560048  RH  048%=      5-min Rain = 0
KAI1 090809Z 09009KT 16/05 A3001 RMK A01 T01560047  RH  048%=      5-min Rain = 0
KAI1 090810Z 09009KT 16/05 A3001 RMK A01 T01570047  RH  048%=      5-min Rain = 0
KAI1 090811Z 09009KT 16/05 A3001 RMK A01 T01570047  RH  048%=      5-min Rain = 0
KAI1 090812Z 09008KT 16/05 A3001 RMK A01 T01570047  RH  048%=      5-min Rain = 0
KAI1 090813Z 10010KT 16/05 A3001 RMK A01 T01560046  RH  048%=      5-min Rain = 0
KAI1 090814Z 09010KT 16/05 A3001 RMK A01 T01560045  RH  047%=      5-min Rain = 0
KAI1 090815Z 09010KT 16/05 A3001 RMK A01 T01570045  RH  047%=      5-min Rain = 0
KAI1 090816Z 09010KT 16/05 A3001 RMK A01 T01580045  RH  047%=      5-min Rain = 0
KAI1 090817Z 09011KT 16/04 A3001 RMK A01 T01580044  RH  047%=      5-min Rain = 0
KAI1 090818Z 09011KT 16/04 A3001 RMK A01 T01580043  RH  046%=      5-min Rain = 0
KAI1 090819Z 09011KT 16/04 A30 RMK A01 T01590044  RH  046%=      5-min Rain = 0
KAI1 090820Z 09010G15KT 16/04 A30 RMK A01 T01590044  RH  046%=      5-min Rain = 0
KAI1 090821Z 09011KT 16/04 A30 RMK A01 T01590044  RH  046%=      5-min Rain = 0
KAI1 090822Z 09011KT 16/04 A30 RMK A01 T01590043  RH  046%=      5-min Rain = 0
KAI1 090823Z 09010KT 16/04 A30 RMK A01 T01590043  RH  046%=      5-min Rain = 0
KAI1 090824Z 09012KT 16/04 A30 RMK A01 T01590044  RH  046%=      5-min Rain = 0
KAI1 090825Z 09012KT 16/04 A30 RMK A01 T01590043  RH  046%=      5-min Rain = 0
KAI1 090826Z 09011KT 16/04 A30 RMK A01 T01600043  RH  046%=      5-min Rain = 0
KAI1 090827Z 09012KT 16/04 A30 RMK A01 T01610044  RH  046%=      5-min Rain = 0
KAI1 090828Z 09012KT 16/04 A30 RMK A01 T01610044  RH  046%=      5-min Rain = 0
KAI1 090829Z 09012KT 16/04 A30 RMK A01 T01610044  RH  046%=      5-min Rain = 0
KAI1 090830Z 09012KT 16/04 A30 RMK A01 T01600044  RH  046%=      5-min Rain = 0
KAI1 090831Z 10011KT 16/04 A30 RMK A01 T01600044  RH  046%=      5-min Rain = 0
KAI1 090832Z 09013KT 16/04 A30 RMK A01 T01600044  RH  046%=      5-min Rain = 0
KAI1 090833Z 10012KT 16/04 A30 RMK A01 T01600043  RH  046%=      5-min Rain = 0
KAI1 090834Z 09013KT 16/04 A30 RMK A01 T01610044  RH  046%=      5-min Rain = 0
KAI1 090835Z 09012KT 16/04 A30 RMK A01 T01600043  RH  046%=      5-min Rain = 0
KAI1 090836Z 10013KT 16/04 A30 RMK A01 T01610044  RH  046%=      5-min Rain = 0
KAI1 090837Z 09013KT 16/04 A30 RMK A01 T01600043  RH  046%=      5-min Rain = 0
KAI1 090838Z 09012KT 16/04 A30 RMK A01 T01600043  RH  046%=      5-min Rain = 0
KAI1 090839Z 09012KT 16/04 A30 RMK A01 T01600044  RH  046%=      5-min Rain = 0
KAI1 090840Z 10014KT 16/04 A30 RMK A01 T01600043  RH  046%=      5-min Rain = 0
KAI1 090841Z 09012KT 16/04 A30 RMK A01 T01600043  RH  046%=      5-min Rain = 0
KAI1 090842Z 09012KT 16/04 A30 RMK A01 T01600043  RH  046%=      5-min Rain = 0
KAI1 090843Z 09014KT 16/04 A30 RMK A01 T01600043  RH  046%=      5-min Rain = 0
KAI1 090844Z 10014KT 16/04 A30 RMK A01 T01600043  RH  046%=      5-min Rain = 0
KAI1 090845Z 10013KT 16/04 A30 RMK A01 T01600043  RH  046%=      5-min Rain = 0
KAI1 090846Z 09013KT 16/04 A30 RMK A01 T01600043  RH  046%=      5-min Rain = 0
KAI1 090847Z 09013KT 16/04 A30 RMK A01 T01590043  RH  046%=      5-min Rain = 0
KAI1 090848Z 09013KT 16/04 A30 RMK A01 T01590043  RH  046%=      5-min Rain = 0
KAI1 090849Z 10013KT 16/04 A30 RMK A01 T01590043  RH  046%=      5-min Rain = 0
KAI1 090850Z 10013KT 16/04 A30 RMK A01 T01590043  RH  046%=      5-min Rain = 0
KAI1 090851Z 10012KT 16/04 A30 RMK A01 T01580043  RH  046%=      5-min Rain = 0
KAI1 090852Z 10013KT 16/04 A30 RMK A01 T01580043  RH  046%=      5-min Rain = 0
KAI1 090853Z 10012KT 16/04 A30 RMK A01 T01580043  RH  046%=      5-min Rain = 0
KAI1 090854Z 09013KT 16/04 A30 RMK A01 T01580043  RH  046%=      5-min Rain = 0
KAI1 090855Z 10013KT 16/04 A30 RMK A01 T01580043  RH  046%=      5-min Rain = 0
KAI1 090856Z 10013KT 16/04 A30 RMK A01 T01580042  RH  046%=      5-min Rain = 0
KAI1 090857Z 10013KT 16/04 A30 RMK A01 T01580042  RH  046%=      5-min Rain = 0
KAI1 090858Z 10012KT 16/04 A30 RMK A01 T01580043  RH  046%=      5-min Rain = 0
KAI1 090859Z 10012KT 16/04 A30 RMK A01 T01570042  RH  046%=      5-min Rain = 0
KAI1 090900Z 10012KT 16/04 A30 RMK A01 T01570042  RH  046%=      5-min Rain = 0
KAI1 090901Z 10013KT 16/04 A30 RMK A01 T01560042  RH  047%=      5-min Rain = 0
KAI1 090902Z 10012KT 16/04 A30 RMK A01 T01560042  RH  046%=      5-min Rain = 0
KAI1 090903Z 10011KT 16/04 A30 RMK A01 T01560042  RH  047%=      5-min Rain = 0
KAI1 090904Z 10011KT 16/04 A30 RMK A01 T01550042  RH  047%=      5-min Rain = 0
KAI1 090905Z 10012KT 16/04 A30 RMK A01 T01550042  RH  047%=      5-min Rain = 0
KAI1 090906Z 10013KT 15/04 A30 RMK A01 T01540041  RH  047%=      5-min Rain = 0
KAI1 090907Z 10013KT 16/04 A30 RMK A01 T01550041  RH  047%=      5-min Rain = 0
KAI1 090908Z 10012KT 16/04 A30 RMK A01 T01550041  RH  047%=      5-min Rain = 0
KAI1 090909Z 10012KT 15/04 A30 RMK A01 T01540041  RH  047%=      5-min Rain = 0
KAI1 090910Z 10012KT 16/04 A30 RMK A01 T01550042  RH  047%=      5-min Rain = 0
KAI1 090911Z 09012KT 16/04 A30 RMK A01 T01550041  RH  047%=      5-min Rain = 0
KAI1 090912Z 09013KT 15/04 A30 RMK A01 T01540041  RH  047%=      5-min Rain = 0
KAI1 090913Z 10012KT 15/04 A2999 RMK A01 T01540041  RH  047%=      5-min Rain = 0
KAI1 090914Z 10012KT 15/04 A30 RMK A01 T01540041  RH  047%=      5-min Rain = 0
KAI1 090915Z 09012KT 15/04 A30 RMK A01 T01530041  RH  047%=      5-min Rain = 0
KAI1 090916Z 10012KT 15/04 A30 RMK A01 T01530041  RH  047%=      5-min Rain = 0
KAI1 090917Z 10011KT 15/04 A30 RMK A01 T01530041  RH  047%=      5-min Rain = 0
KAI1 090918Z 10012KT 15/04 A30 RMK A01 T01530041  RH  047%=      5-min Rain = 0
KAI1 090919Z 10011KT 15/04 A30 RMK A01 T01530042  RH  047%=      5-min Rain = 0
KAI1 090920Z 10010KT 15/04 A2999 RMK A01 T01520042  RH  048%=      5-min Rain = 0
KAI1 090921Z 10011KT 15/04 A2999 RMK A01 T01520042  RH  048%=      5-min Rain = 0
KAI1 090922Z 10012KT 15/04 A30 RMK A01 T01510042  RH  048%=      5-min Rain = 0
KAI1 090923Z 10010KT 15/04 A2999 RMK A01 T01510042  RH  048%=      5-min Rain = 0
KAI1 090924Z 10011KT 15/04 A2999 RMK A01 T01510042  RH  048%=      5-min Rain = 0
KAI1 090925Z 10011KT 15/04 A2999 RMK A01 T01500042  RH  048%=      5-min Rain = 0
KAI1 090926Z 10010KT 15/04 A2999 RMK A01 T01500042  RH  048%=      5-min Rain = 0
KAI1 090927Z 10010KT 15/04 A2999 RMK A01 T01500042  RH  048%=      5-min Rain = 0
KAI1 090928Z 10010KT 15/04 A2999 RMK A01 T01490042  RH  049%=      5-min Rain = 0
KAI1 090929Z 10010KT 15/04 A2999 RMK A01 T01490042  RH  049%=      5-min Rain = 0
KAI1 090930Z 10010KT 15/04 A2999 RMK A01 T01490042  RH  049%=      5-min Rain = 0
KAI1 090931Z 10010KT 15/04 A2999 RMK A01 T01490042  RH  049%=      5-min Rain = 0
KAI1 090932Z 10010KT 15/04 A2999 RMK A01 T01480042  RH  049%=      5-min Rain = 0
KAI1 090933Z 10010KT 15/04 A2999 RMK A01 T01480042  RH  049%=      5-min Rain = 0
KAI1 090934Z 10010KT 15/04 A2999 RMK A01 T01480042  RH  049%=      5-min Rain = 0
KAI1 090935Z 10010KT 15/04 A2999 RMK A01 T01470042  RH  049%=      5-min Rain = 0
KAI1 090936Z 10010KT 15/04 A2999 RMK A01 T01470042  RH  049%=      5-min Rain = 0
KAI1 090937Z 10009KT 15/04 A2999 RMK A01 T01470042  RH  050%=      5-min Rain = 0
KAI1 090938Z 10010KT 15/04 A2999 RMK A01 T01460042  RH  050%=      5-min Rain = 0
KAI1 090939Z 10010KT 15/04 A2999 RMK A01 T01460042  RH  050%=      5-min Rain = 0
KAI1 090940Z 10011KT 15/04 A2999 RMK A01 T01460042  RH  050%=      5-min Rain = 0
KAI1 090941Z 10010KT 15/04 A2999 RMK A01 T01460042  RH  050%=      5-min Rain = 0
KAI1 090942Z 10010KT 15/04 A2999 RMK A01 T01460042  RH  050%=      5-min Rain = 0
KAI1 090943Z 10009KT 15/04 A2999 RMK A01 T01460042  RH  050%=      5-min Rain = 0
KAI1 090944Z 10009KT 15/04 A2999 RMK A01 T01450042  RH  050%=      5-min Rain = 0
KAI1 090945Z 10008KT 15/04 A2999 RMK A01 T01450042  RH  050%=      5-min Rain = 0
KAI1 090946Z 10008KT 14/04 A2999 RMK A01 T01440041  RH  050%=      5-min Rain = 0
KAI1 090947Z 10008KT 14/04 A2999 RMK A01 T01440041  RH  050%=      5-min Rain = 0
KAI1 090948Z 10008KT 14/04 A2999 RMK A01 T01430041  RH  050%=      5-min Rain = 0
KAI1 090949Z 10008KT 14/04 A2999 RMK A01 T01420041  RH  050%=      5-min Rain = 0
KAI1 090950Z 11008KT 14/04 A2999 RMK A01 T01420040  RH  050%=      5-min Rain = 0
KAI1 090951Z 11008KT 14/04 A2999 RMK A01 T01420041  RH  050%=      5-min Rain = 0
KAI1 090952Z 11007KT 14/04 A2999 RMK A01 T01420040  RH  050%=      5-min Rain = 0
KAI1 090953Z 11008KT 14/04 A2999 RMK A01 T01410040  RH  051%=      5-min Rain = 0
KAI1 090954Z 11008KT 14/04 A2999 RMK A01 T01410040  RH  051%=      5-min Rain = 0
KAI1 090955Z 11008KT 14/04 A2999 RMK A01 T01400040  RH  051%=      5-min Rain = 0
KAI1 090956Z 11008KT 14/04 A2999 RMK A01 T01390040  RH  051%=      5-min Rain = 0
KAI1 090957Z 11008KT 14/04 A2999 RMK A01 T01390039  RH  051%=      5-min Rain = 0
KAI1 090958Z 11008KT 14/04 A2999 RMK A01 T01380039  RH  051%=      5-min Rain = 0
KAI1 090959Z 11008KT 14/04 A2999 RMK A01 T01380039  RH  051%=      5-min Rain = 0
KAI1 091000Z 11008KT 14/04 A2999 RMK A01 T01380039  RH  051%=      5-min Rain = 0
KAI1 091001Z 11008KT 14/04 A2999 RMK A01 T01370039  RH  052%=      5-min Rain = 0
KAI1 091002Z 11008KT 14/04 A2999 RMK A01 T01370039  RH  052%=      5-min Rain = 0
KAI1 091003Z 11007KT 14/04 A2999 RMK A01 T01370039  RH  052%=      5-min Rain = 0
KAI1 091004Z 11007KT 14/04 A2999 RMK A01 T01350038  RH  052%=      5-min Rain = 0
KAI1 091005Z 11007KT 14/04 A2999 RMK A01 T01350039  RH  052%=      5-min Rain = 0
KAI1 091006Z 11008KT 13/04 A2999 RMK A01 T01340038  RH  052%=      5-min Rain = 0
KAI1 091007Z 11008KT 13/04 A2999 RMK A01 T01340038  RH  052%=      5-min Rain = 0
KAI1 091008Z 11008KT 13/04 A2999 RMK A01 T01330038  RH  052%=      5-min Rain = 0
KAI1 091009Z 11008KT 13/04 A2999 RMK A01 T01330038  RH  053%=      5-min Rain = 0
KAI1 091010Z 11008KT 13/04 A2999 RMK A01 T01330038  RH  053%=      5-min Rain = 0
KAI1 091011Z 11008KT 13/04 A2999 RMK A01 T01330038  RH  053%=      5-min Rain = 0
KAI1 091012Z 11008KT 13/04 A2999 RMK A01 T01320038  RH  053%=      5-min Rain = 0
KAI1 091013Z 11008KT 13/04 A2999 RMK A01 T01330038  RH  053%=      5-min Rain = 0
KAI1 091014Z 11008KT 13/04 A2999 RMK A01 T01320038  RH  053%=      5-min Rain = 0
KAI1 091015Z 11008KT 13/04 A2999 RMK A01 T01320039  RH  053%=      5-min Rain = 0
KAI1 091016Z 10009KT 13/04 A2999 RMK A01 T01330039  RH  053%=      5-min Rain = 0
KAI1 091017Z 11008KT 13/04 A2999 RMK A01 T01330039  RH  053%=      5-min Rain = 0
KAI1 091018Z 11008KT 13/04 A2999 RMK A01 T01330039  RH  053%=      5-min Rain = 0
KAI1 091019Z 11008KT 13/04 A2999 RMK A01 T01320038  RH  053%=      5-min Rain = 0
KAI1 091020Z 11008KT 13/04 A2999 RMK A01 T01330039  RH  053%=      5-min Rain = 0
KAI1 091021Z 11008KT 13/04 A2999 RMK A01 T01330039  RH  053%=      5-min Rain = 0
KAI1 091022Z 11008KT 13/04 A2999 RMK A01 T01330039  RH  053%=      5-min Rain = 0
KAI1 091023Z 11008KT 13/04 A2999 RMK A01 T01330040  RH  053%=      5-min Rain = 0
KAI1 091024Z 11008KT 13/04 A2999 RMK A01 T01330039  RH  053%=      5-min Rain = 0
KAI1 091025Z 10008KT 13/04 A2999 RMK A01 T01320039  RH  053%=      5-min Rain = 0
KAI1 091026Z 11008KT 13/04 A2999 RMK A01 T01320039  RH  053%=      5-min Rain = 0
KAI1 091027Z 11008KT 13/04 A2998 RMK A01 T01320039  RH  053%=      5-min Rain = 0
KAI1 091028Z 10008KT 13/04 A2998 RMK A01 T01310039  RH  054%=      5-min Rain = 0
KAI1 091029Z 10008KT 13/04 A2999 RMK A01 T01300039  RH  054%=      5-min Rain = 0
KAI1 091030Z 10008KT 13/04 A2999 RMK A01 T01300039  RH  054%=      5-min Rain = 0
KAI1 091031Z 10008KT 13/04 A2999 RMK A01 T01290039  RH  054%=      5-min Rain = 0
KAI1 091032Z 10007KT 13/04 A2999 RMK A01 T01290039  RH  054%=      5-min Rain = 0
KAI1 091033Z 10007KT 13/04 A2998 RMK A01 T01280039  RH  054%=      5-min Rain = 0
KAI1 091034Z 10007KT 13/04 A2998 RMK A01 T01280039  RH  055%=      5-min Rain = 0
KAI1 091035Z 10007KT 13/04 A2998 RMK A01 T01270039  RH  055%=      5-min Rain = 0
KAI1 091036Z 10007KT 13/04 A2998 RMK A01 T01260039  RH  055%=      5-min Rain = 0
KAI1 091037Z 10007KT 13/04 A2998 RMK A01 T01260039  RH  055%=      5-min Rain = 0
KAI1 091038Z 10007KT 13/04 A2999 RMK A01 T01260039  RH  055%=      5-min Rain = 0
KAI1 091039Z 10007KT 13/04 A2999 RMK A01 T01260039  RH  056%=      5-min Rain = 0
KAI1 091040Z 09007KT 13/04 A2998 RMK A01 T01250039  RH  056%=      5-min Rain = 0
KAI1 091041Z 09006KT 12/04 A2998 RMK A01 T01240039  RH  056%=      5-min Rain = 0
KAI1 091042Z 10006KT 12/04 A2998 RMK A01 T01240039  RH  056%=      5-min Rain = 0
KAI1 091043Z 10006KT 12/04 A2998 RMK A01 T01240039  RH  056%=      5-min Rain = 0
KAI1 091044Z 09006KT 12/04 A2998 RMK A01 T01230039  RH  056%=      5-min Rain = 0
KAI1 091045Z 10005KT 12/04 A2998 RMK A01 T01230039  RH  057%=      5-min Rain = 0
KAI1 091046Z 10005KT 12/04 A2998 RMK A01 T01230040  RH  057%=      5-min Rain = 0
KAI1 091047Z 10005KT 12/04 A2999 RMK A01 T01230040  RH  057%=      5-min Rain = 0
KAI1 091048Z 10005KT 12/04 A2999 RMK A01 T01230040  RH  057%=      5-min Rain = 0
KAI1 091049Z 10005KT 12/04 A2999 RMK A01 T01230040  RH  057%=      5-min Rain = 0
KAI1 091050Z 10004KT 12/04 A2999 RMK A01 T01220040  RH  057%=      5-min Rain = 0
KAI1 091051Z 10003KT 12/04 A2999 RMK A01 T01220040  RH  057%=      5-min Rain = 0
KAI1 091052Z 11002KT 12/04 A2999 RMK A01 T01220040  RH  057%=      5-min Rain = 0
KAI1 091053Z 10001KT 12/04 A2999 RMK A01 T01220040  RH  057%=      5-min Rain = 0
KAI1 091054Z 31000KT 12/04 A2999 RMK A01 T01210041  RH  058%=      5-min Rain = 0
KAI1 091055Z 30001KT 12/04 A30 RMK A01 T01210041  RH  058%=      5-min Rain = 0
KAI1 091056Z 28003KT 12/04 A30 RMK A01 T01200040  RH  058%=      5-min Rain = 0
KAI1 091057Z 27004KT 12/04 A30 RMK A01 T01160038  RH  059%=      5-min Rain = 0
KAI1 091058Z 27005KT 11/04 A30 RMK A01 T01130038  RH  060%=      5-min Rain = 0
KAI1 091059Z 27005KT 11/04 A30 RMK A01 T01110038  RH  061%=      5-min Rain = 0
KAI1 091100Z 27005KT 11/04 A30 RMK A01 T01090037  RH  061%=      5-min Rain = 0
KAI1 091101Z 26005KT 11/04 A30 RMK A01 T01080037  RH  061%=      5-min Rain = 0
KAI1 091102Z 26004KT 11/04 A30 RMK A01 T01070037  RH  062%=      5-min Rain = 0
KAI1 091103Z 26003KT 11/04 A30 RMK A01 T01060037  RH  062%=      5-min Rain = 0
KAI1 091104Z 26003KT 11/04 A30 RMK A01 T01060037  RH  062%=      5-min Rain = 0
KAI1 091105Z 25003KT 11/04 A30 RMK A01 T01060037  RH  062%=      5-min Rain = 0
KAI1 091106Z 24002KT 11/04 A30 RMK A01 T01060037  RH  062%=      5-min Rain = 0
KAI1 091107Z 22002KT 11/04 A30 RMK A01 T01070038  RH  062%=      5-min Rain = 0
KAI1 091108Z 20002KT 11/04 A30 RMK A01 T01080038  RH  062%=      5-min Rain = 0
KAI1 091109Z 20002KT 11/04 A30 RMK A01 T01080038  RH  062%=      5-min Rain = 0
KAI1 091110Z 21002KT 11/04 A30 RMK A01 T01090038  RH  062%=      5-min Rain = 0
KAI1 091111Z 20002KT 11/04 A30 RMK A01 T01090038  RH  062%=      5-min Rain = 0
KAI1 091112Z 19002KT 11/04 A30 RMK A01 T01090038  RH  062%=      5-min Rain = 0
KAI1 091113Z 20002KT 11/04 A30 RMK A01 T01100039  RH  061%=      5-min Rain = 0
KAI1 091114Z 20002KT 11/04 A30 RMK A01 T01110039  RH  061%=      5-min Rain = 0
KAI1 091115Z 20002KT 11/04 A30 RMK A01 T01110039  RH  061%=      5-min Rain = 0
KAI1 091116Z 21002KT 11/04 A30 RMK A01 T01120039  RH  061%=      5-min Rain = 0
KAI1 091117Z 22001KT 11/04 A30 RMK A01 T01110038  RH  061%=      5-min Rain = 0
KAI1 091118Z 22002KT 11/04 A30 RMK A01 T01100038  RH  061%=      5-min Rain = 0
KAI1 091119Z 23003KT 11/04 A30 RMK A01 T01090038  RH  061%=      5-min Rain = 0
KAI1 091120Z 24003KT 11/04 A30 RMK A01 T01080038  RH  062%=      5-min Rain = 0
KAI1 091121Z 24004KT 11/04 A3001 RMK A01 T01080038  RH  062%=      5-min Rain = 0
KAI1 091122Z 24004KT 11/04 A3001 RMK A01 T01070038  RH  062%=      5-min Rain = 0
KAI1 091123Z 24004KT 11/04 A3001 RMK A01 T01060038  RH  063%=      5-min Rain = 0
KAI1 091124Z 24004KT 11/04 A3001 RMK A01 T01050038  RH  063%=      5-min Rain = 0
KAI1 091125Z 23004KT 10/04 A3001 RMK A01 T01040037  RH  063%=      5-min Rain = 0
KAI1 091126Z 22004KT 10/04 A3001 RMK A01 T01020036  RH  063%=      5-min Rain = 0
KAI1 091127Z 21003KT 10/04 A3001 RMK A01 T01010036  RH  064%=      5-min Rain = 0
KAI1 091128Z 21002KT 10/04 A3001 RMK A01 T01010036  RH  064%=      5-min Rain = 0
KAI1 091129Z 20002KT 10/04 A3001 RMK A01 T01010036  RH  064%=      5-min Rain = 0
KAI1 091130Z 19002KT 10/04 A3001 RMK A01 T01000037  RH  064%=      5-min Rain = 0
KAI1 091131Z 18002KT 10/04 A3001 RMK A01 T01000037  RH  065%=      5-min Rain = 0
KAI1 091132Z 17002KT 10/04 A3001 RMK A01 T01000037  RH  065%=      5-min Rain = 0
KAI1 091133Z 17002KT 10/04 A3001 RMK A01 T01000037  RH  065%=      5-min Rain = 0
KAI1 091134Z 18002KT 10/04 A3001 RMK A01 T01010038  RH  065%=      5-min Rain = 0
KAI1 091135Z 18002KT 10/04 A3001 RMK A01 T01010038  RH  065%=      5-min Rain = 0
KAI1 091136Z 17002KT 10/04 A3001 RMK A01 T01010038  RH  065%=      5-min Rain = 0
KAI1 091137Z 16001KT 10/04 A3001 RMK A01 T01020039  RH  065%=      5-min Rain = 0
KAI1 091138Z 16001KT 10/04 A3001 RMK A01 T01020039  RH  065%=      5-min Rain = 0
KAI1 091139Z 16001KT 10/04 A3001 RMK A01 T01030039  RH  064%=      5-min Rain = 0
KAI1 091140Z 14001KT 10/04 A3001 RMK A01 T01040039  RH  064%=      5-min Rain = 0
KAI1 091141Z 14001KT 10/04 A3001 RMK A01 T01040038  RH  064%=      5-min Rain = 0
KAI1 091142Z 14000KT 10/04 A3001 RMK A01 T01040038  RH  064%=      5-min Rain = 0
KAI1 091143Z 15000KT 10/04 A3001 RMK A01 T01040038  RH  064%=      5-min Rain = 0
KAI1 091144Z 11000KT 10/04 A3001 RMK A01 T01040039  RH  064%=      5-min Rain = 0
KAI1 091145Z 11000KT 10/04 A3001 RMK A01 T01030038  RH  064%=      5-min Rain = 0
KAI1 091146Z 11000KT 10/04 A3001 RMK A01 T01020038  RH  064%=      5-min Rain = 0
KAI1 091147Z 12000KT 10/04 A3001 RMK A01 T01020038  RH  064%=      5-min Rain = 0
KAI1 091148Z 12000KT 10/04 A3001 RMK A01 T01020038  RH  065%=      5-min Rain = 0
KAI1 091149Z 00000KT 10/04 A3001 RMK A01 T01010037  RH  064%=      5-min Rain = 0
KAI1 091150Z 00000KT 10/04 A3001 RMK A01 T01010036  RH  064%=      5-min Rain = 0
KAI1 091151Z 00000KT 10/04 A3001 RMK A01 T01000036  RH  064%=      5-min Rain = 0
KAI1 091152Z 16000KT 10/04 A3001 RMK A01 T01000036  RH  065%=      5-min Rain = 0
KAI1 091153Z 16000KT 10/04 A3001 RMK A01 T00990037  RH  065%=      5-min Rain = 0
KAI1 091154Z 17000KT 10/04 A3001 RMK A01 T01000039  RH  066%=      5-min Rain = 0
KAI1 091155Z 17001KT 10/04 A3001 RMK A01 T01000039  RH  066%=      5-min Rain = 0
KAI1 091156Z 16001KT 10/04 A3001 RMK A01 T01010041  RH  066%=      5-min Rain = 0
KAI1 091157Z 15001KT 10/04 A3001 RMK A01 T01010041  RH  066%=      5-min Rain = 0
KAI1 091158Z 14001KT 10/04 A3001 RMK A01 T01010041  RH  066%=      5-min Rain = 0
KAI1 091159Z 14001KT 10/04 A3001 RMK A01 T01010040  RH  066%=      5-min Rain = 0
KAI1 091200Z 13002KT 10/04 A3001 RMK A01 T01010041  RH  066%=      5-min Rain = 0
KAI1 091201Z 13002KT 10/04 A3001 RMK A01 T01010041  RH  066%=      5-min Rain = 0
KAI1 091202Z 13002KT 10/04 A3002 RMK A01 T01010040  RH  066%=      5-min Rain = 0
KAI1 091203Z 13002KT 10/04 A3002 RMK A01 T01010040  RH  066%=      5-min Rain = 0
KAI1 091204Z 13002KT 10/04 A3002 RMK A01 T01010039  RH  066%=      5-min Rain = 0
KAI1 091205Z 12002KT 10/04 A3002 RMK A01 T01010040  RH  066%=      5-min Rain = 0
KAI1 091206Z 12002KT 10/04 A3001 RMK A01 T01010039  RH  066%=      5-min Rain = 0
KAI1 091207Z 12002KT 10/04 A3001 RMK A01 T01010038  RH  065%=      5-min Rain = 0
KAI1 091208Z 12002KT 10/04 A3001 RMK A01 T01010036  RH  064%=      5-min Rain = 0
KAI1 091209Z 12002KT 10/04 A3001 RMK A01 T01010035  RH  064%=      5-min Rain = 0
KAI1 091210Z 12002KT 10/04 A3002 RMK A01 T01010035  RH  063%=      5-min Rain = 0
KAI1 091211Z 13002KT 10/03 A3002 RMK A01 T01000033  RH  063%=      5-min Rain = 0
KAI1 091212Z 13002KT 10/03 A3002 RMK A01 T01010034  RH  063%=      5-min Rain = 0
KAI1 091213Z 13002KT 10/03 A3002 RMK A01 T01000033  RH  063%=      5-min Rain = 0
KAI1 091214Z 13002KT 10/03 A3002 RMK A01 T01000033  RH  063%=      5-min Rain = 0
KAI1 091215Z 13002KT 10/03 A3002 RMK A01 T01000034  RH  063%=      5-min Rain = 0
KAI1 091216Z 13002KT 10/04 A3002 RMK A01 T01000035  RH  064%=      5-min Rain = 0
KAI1 091217Z 13002KT 10/04 A3002 RMK A01 T01000036  RH  064%=      5-min Rain = 0
KAI1 091218Z 13002KT 10/04 A3002 RMK A01 T01000036  RH  065%=      5-min Rain = 0
KAI1 091219Z 14002KT 10/04 A3002 RMK A01 T01000038  RH  065%=      5-min Rain = 0
KAI1 091220Z 15002KT 10/04 A3002 RMK A01 T01000038  RH  065%=      5-min Rain = 0
KAI1 091221Z 14002KT 10/04 A3002 RMK A01 T01000038  RH  065%=      5-min Rain = 0
KAI1 091222Z 14002KT 10/04 A3002 RMK A01 T01000039  RH  066%=      5-min Rain = 0
KAI1 091223Z 14002KT 10/04 A3002 RMK A01 T01010039  RH  066%=      5-min Rain = 0
KAI1 091224Z 15003KT 10/04 A3002 RMK A01 T01010039  RH  065%=      5-min Rain = 0
KAI1 091225Z 15003KT 10/04 A3002 RMK A01 T01010039  RH  065%=      5-min Rain = 0
KAI1 091226Z 15003KT 10/04 A3002 RMK A01 T01010039  RH  065%=      5-min Rain = 0
KAI1 091227Z 14003KT 10/04 A3002 RMK A01 T01020040  RH  065%=      5-min Rain = 0
KAI1 091228Z 13003KT 10/04 A3002 RMK A01 T01040040  RH  065%=      5-min Rain = 0
KAI1 091229Z 14003KT 11/04 A3002 RMK A01 T01060040  RH  064%=      5-min Rain = 0
KAI1 091230Z 14004KT 11/04 A3002 RMK A01 T01060039  RH  063%=      5-min Rain = 0
KAI1 091231Z 14004KT 11/04 A3002 RMK A01 T01070039  RH  063%=      5-min Rain = 0
KAI1 091232Z 14004KT 11/04 A3002 RMK A01 T01070038  RH  062%=      5-min Rain = 0
KAI1 091233Z 14005KT 11/04 A3002 RMK A01 T01080038  RH  062%=      5-min Rain = 0
KAI1 091234Z 14005KT 11/04 A3002 RMK A01 T01090039  RH  062%=      5-min Rain = 0
KAI1 091235Z 14005KT 11/04 A3002 RMK A01 T01090038  RH  062%=      5-min Rain = 0
KAI1 091236Z 14005KT 11/04 A3002 RMK A01 T01100039  RH  061%=      5-min Rain = 0
KAI1 091237Z 13005KT 11/04 A3002 RMK A01 T01100039  RH  061%=      5-min Rain = 0
KAI1 091238Z 13005KT 11/04 A3002 RMK A01 T01100039  RH  061%=      5-min Rain = 0
KAI1 091239Z 13005KT 11/04 A3002 RMK A01 T01110040  RH  062%=      5-min Rain = 0
KAI1 091240Z 13005KT 11/04 A3002 RMK A01 T01110041  RH  062%=      5-min Rain = 0
KAI1 091241Z 13005KT 11/04 A3002 RMK A01 T01120042  RH  062%=      5-min Rain = 0
KAI1 091242Z 13005KT 11/04 A3002 RMK A01 T01120042  RH  062%=      5-min Rain = 0
KAI1 091243Z 13006KT 11/04 A3002 RMK A01 T01130043  RH  062%=      5-min Rain = 0
KAI1 091244Z 13006KT 11/04 A3003 RMK A01 T01140043  RH  062%=      5-min Rain = 0
KAI1 091245Z 13006KT 12/04 A3003 RMK A01 T01150043  RH  061%=      5-min Rain = 0
KAI1 091246Z 13006KT 12/04 A3003 RMK A01 T01160043  RH  061%=      5-min Rain = 0
KAI1 091247Z 13005KT 12/04 A3003 RMK A01 T01160043  RH  061%=      5-min Rain = 0
KAI1 091248Z 13005KT 12/04 A3003 RMK A01 T01170043  RH  061%=      5-min Rain = 0
KAI1 091249Z 13005KT 12/04 A3003 RMK A01 T01170044  RH  061%=      5-min Rain = 0
KAI1 091250Z 13005KT 12/04 A3003 RMK A01 T01180044  RH  060%=      5-min Rain = 0
KAI1 091251Z 13005KT 12/04 A3003 RMK A01 T01180043  RH  060%=      5-min Rain = 0
KAI1 091252Z 12005KT 12/04 A3003 RMK A01 T01180044  RH  060%=      5-min Rain = 0
KAI1 091253Z 12005KT 12/04 A3003 RMK A01 T01180043  RH  060%=      5-min Rain = 0
KAI1 091254Z 12005KT 12/04 A3003 RMK A01 T01180043  RH  060%=      5-min Rain = 0
KAI1 091255Z 12005KT 12/04 A3003 RMK A01 T01180043  RH  060%=      5-min Rain = 0
KAI1 091256Z 12005KT 12/04 A3003 RMK A01 T01190044  RH  060%=      5-min Rain = 0
KAI1 091257Z 12005KT 12/04 A3003 RMK A01 T01180044  RH  060%=      5-min Rain = 0
KAI1 091258Z 12005KT 12/05 A3003 RMK A01 T01190045  RH  061%=      5-min Rain = 0
KAI1 091259Z 12005KT 12/05 A3003 RMK A01 T01190045  RH  061%=      5-min Rain = 0
KAI1 091300Z 12005KT 12/05 A3003 RMK A01 T01190045  RH  060%=      5-min Rain = 0
KAI1 091301Z 11005KT 12/05 A3003 RMK A01 T01200045  RH  060%=      5-min Rain = 0
KAI1 091302Z 11005KT 12/05 A3003 RMK A01 T01200045  RH  060%=      5-min Rain = 0
KAI1 091303Z 11005KT 12/05 A3003 RMK A01 T01210045  RH  060%=      5-min Rain = 0
KAI1 091304Z 11005KT 12/04 A3003 RMK A01 T01220044  RH  059%=      5-min Rain = 0
KAI1 091305Z 10005KT 12/04 A3003 RMK A01 T01220044  RH  059%=      5-min Rain = 0
KAI1 091306Z 10005KT 12/05 A3003 RMK A01 T01230045  RH  059%=      5-min Rain = 0
KAI1 091307Z 10005KT 12/05 A3003 RMK A01 T01240045  RH  059%=      5-min Rain = 0
KAI1 091308Z 10005KT 12/05 A3003 RMK A01 T01240045  RH  059%=      5-min Rain = 0
KAI1 091309Z 10006KT 13/05 A3003 RMK A01 T01250045  RH  058%=      5-min Rain = 0
KAI1 091310Z 10006KT 13/05 A3003 RMK A01 T01260045  RH  058%=      5-min Rain = 0
KAI1 091311Z 09005KT 13/05 A3004 RMK A01 T01270045  RH  058%=      5-min Rain = 0
KAI1 091312Z 09005KT 13/05 A3004 RMK A01 T01280046  RH  057%=      5-min Rain = 0
KAI1 091313Z 08005KT 13/05 A3004 RMK A01 T01280046  RH  057%=      5-min Rain = 0
KAI1 091314Z 07005KT 13/05 A3004 RMK A01 T01280046  RH  057%=      5-min Rain = 0
KAI1 091315Z 07006KT 13/05 A3004 RMK A01 T01280046  RH  057%=      5-min Rain = 0
KAI1 091316Z 06005KT 13/05 A3004 RMK A01 T01280046  RH  057%=      5-min Rain = 0
KAI1 091317Z 05006KT 13/05 A3004 RMK A01 T01260045  RH  058%=      5-min Rain = 0
KAI1 091318Z 05006KT 13/05 A3004 RMK A01 T01250046  RH  059%=      5-min Rain = 0
KAI1 091319Z 04006KT 12/05 A3004 RMK A01 T01240047  RH  059%=      5-min Rain = 0
KAI1 091320Z 05006KT 12/05 A3004 RMK A01 T01240046  RH  059%=      5-min Rain = 0
KAI1 091321Z 05006KT 12/04 A3004 RMK A01 T01240044  RH  058%=      5-min Rain = 0
KAI1 091322Z 05006KT 13/04 A3004 RMK A01 T01250043  RH  058%=      5-min Rain = 0
KAI1 091323Z 04006KT 13/04 A3004 RMK A01 T01250043  RH  057%=      5-min Rain = 0
KAI1 091324Z 04006KT 13/04 A3004 RMK A01 T01260044  RH  057%=      5-min Rain = 0
KAI1 091325Z 05005KT 13/04 A3004 RMK A01 T01260044  RH  057%=      5-min Rain = 0
KAI1 091326Z 05006KT 13/04 A3004 RMK A01 T01270044  RH  057%=      5-min Rain = 0
KAI1 091327Z 05006KT 13/04 A3004 RMK A01 T01270043  RH  057%=      5-min Rain = 0
KAI1 091328Z 05005KT 13/04 A3004 RMK A01 T01280043  RH  056%=      5-min Rain = 0
KAI1 091329Z 05005KT 13/04 A3004 RMK A01 T01280044  RH  057%=      5-min Rain = 0
KAI1 091330Z 06005KT 13/04 A3005 RMK A01 T01280043  RH  056%=      5-min Rain = 0
KAI1 091331Z 06005KT 13/04 A3005 RMK A01 T01280044  RH  056%=      5-min Rain = 0
KAI1 091332Z 06006KT 13/04 A3005 RMK A01 T01280044  RH  057%=      5-min Rain = 0
KAI1 091333Z 07006KT 13/05 A3005 RMK A01 T01280045  RH  057%=      5-min Rain = 0
KAI1 091334Z 06005KT 13/05 A3005 RMK A01 T01280045  RH  057%=      5-min Rain = 0
KAI1 091335Z 05005KT 13/05 A3005 RMK A01 T01290046  RH  057%=      5-min Rain = 0
KAI1 091336Z 06005KT 13/05 A3005 RMK A01 T01300047  RH  057%=      5-min Rain = 0
KAI1 091337Z 06006KT 13/05 A3005 RMK A01 T01300047  RH  057%=      5-min Rain = 0
KAI1 091338Z 06006KT 13/05 A3005 RMK A01 T01300047  RH  057%=      5-min Rain = 0
KAI1 091339Z 06006KT 13/05 A3005 RMK A01 T01310048  RH  057%=      5-min Rain = 0
KAI1 091340Z 06006KT 13/05 A3005 RMK A01 T01310048  RH  057%=      5-min Rain = 0
KAI1 091341Z 06006KT 13/05 A3005 RMK A01 T01320048  RH  057%=      5-min Rain = 0
KAI1 091342Z 06006KT 13/05 A3005 RMK A01 T01330049  RH  057%=      5-min Rain = 0
KAI1 091343Z 06006KT 13/05 A3005 RMK A01 T01330049  RH  056%=      5-min Rain = 0
KAI1 091344Z 06006KT 14/05 A3005 RMK A01 T01350050  RH  056%=      5-min Rain = 0
KAI1 091345Z 07006KT 14/05 A3005 RMK A01 T01360050  RH  056%=      5-min Rain = 0
KAI1 091346Z 06006KT 14/05 A3005 RMK A01 T01360051  RH  056%=      5-min Rain = 0
KAI1 091347Z 07006KT 14/05 A3006 RMK A01 T01370052  RH  056%=      5-min Rain = 0
KAI1 091348Z 07007KT 14/05 A3006 RMK A01 T01370053  RH  057%=      5-min Rain = 0
KAI1 091349Z 06007KT 14/05 A3006 RMK A01 T01380053  RH  057%=      5-min Rain = 0
KAI1 091350Z 07008KT 14/05 A3006 RMK A01 T01390053  RH  056%=      5-min Rain = 0
KAI1 091351Z 07009KT 14/05 A3006 RMK A01 T01400053  RH  056%=      5-min Rain = 0
KAI1 091352Z 07009KT 14/05 A3006 RMK A01 T01400053  RH  056%=      5-min Rain = 0
KAI1 091353Z 06008KT 14/05 A3006 RMK A01 T01410054  RH  056%=      5-min Rain = 0
KAI1 091354Z 06008KT 14/06 A3006 RMK A01 T01410055  RH  056%=      5-min Rain = 0
KAI1 091355Z 06008KT 14/05 A3006 RMK A01 T01410054  RH  056%=      5-min Rain = 0
KAI1 091356Z 06010KT 14/05 A3006 RMK A01 T01410054  RH  055%=      5-min Rain = 0
KAI1 091357Z 06010KT 14/05 A3006 RMK A01 T01420053  RH  055%=      5-min Rain = 0
KAI1 091358Z 07009KT 14/05 A3006 RMK A01 T01420053  RH  055%=      5-min Rain = 0
KAI1 091359Z 06009KT 14/05 A3006 RMK A01 T01420054  RH  055%=      5-min Rain = 0
KAI1 091400Z 06008KT 14/05 A3006 RMK A01 T01420054  RH  055%=      5-min Rain = 0
KAI1 091401Z 06007KT 14/05 A3006 RMK A01 T01420054  RH  055%=      5-min Rain = 0
KAI1 091402Z 06008KT 14/06 A3006 RMK A01 T01430055  RH  056%=      5-min Rain = 0
KAI1 091403Z 06008KT 14/06 A3006 RMK A01 T01430055  RH  056%=      5-min Rain = 0
KAI1 091404Z 06007KT 14/06 A3006 RMK A01 T01440056  RH  056%=      5-min Rain = 0
KAI1 091405Z 06008KT 14/06 A3006 RMK A01 T01440056  RH  056%=      5-min Rain = 0
KAI1 091406Z 05007KT 14/06 A3006 RMK A01 T01440056  RH  055%=      5-min Rain = 0
KAI1 091407Z 06008KT 14/06 A3007 RMK A01 T01440056  RH  055%=      5-min Rain = 0
KAI1 091408Z 06008KT 14/06 A3007 RMK A01 T01440056  RH  055%=      5-min Rain = 0
KAI1 091409Z 05008KT 14/06 A3007 RMK A01 T01440056  RH  055%=      5-min Rain = 0
KAI1 091410Z 05009KT 15/06 A3007 RMK A01 T01450056  RH  055%=      5-min Rain = 0
KAI1 091411Z 05010KT 15/05 A3007 RMK A01 T01450054  RH  054%=      5-min Rain = 0
KAI1 091412Z 06010KT 15/05 A3007 RMK A01 T01450054  RH  054%=      5-min Rain = 0
KAI1 091413Z 05010KT 15/05 A3007 RMK A01 T01460054  RH  054%=      5-min Rain = 0
KAI1 091414Z 05009KT 15/05 A3007 RMK A01 T01460054  RH  054%=      5-min Rain = 0
KAI1 091415Z 05011KT 15/05 A3007 RMK A01 T01460053  RH  053%=      5-min Rain = 0
KAI1 091416Z 05010KT 15/05 A3007 RMK A01 T01470052  RH  053%=      5-min Rain = 0
KAI1 091417Z 06010KT 15/05 A3007 RMK A01 T01470053  RH  053%=      5-min Rain = 0
KAI1 091418Z 05010KT 15/05 A3007 RMK A01 T01480052  RH  053%=      5-min Rain = 0
KAI1 091419Z 06011KT 15/05 A3007 RMK A01 T01480051  RH  052%=      5-min Rain = 0
KAI1 091420Z 05010KT 15/05 A3007 RMK A01 T01480052  RH  052%=      5-min Rain = 0
KAI1 091421Z 06011KT 15/05 A3007 RMK A01 T01480051  RH  052%=      5-min Rain = 0
KAI1 091422Z 05012KT 15/05 A3007 RMK A01 T01480050  RH  052%=      5-min Rain = 0
KAI1 091423Z 06012KT 15/05 A3007 RMK A01 T01480051  RH  052%=      5-min Rain = 0
KAI1 091424Z 06012KT 15/05 A3007 RMK A01 T01470051  RH  052%=      5-min Rain = 0
KAI1 091425Z 06012KT 15/05 A3007 RMK A01 T01470050  RH  052%=      5-min Rain = 0
KAI1 091426Z 06011KT 15/05 A3007 RMK A01 T01460050  RH  052%=      5-min Rain = 0
KAI1 091427Z 06010KT 15/05 A3007 RMK A01 T01470051  RH  053%=      5-min Rain = 0
KAI1 091428Z 06011KT 15/05 A3007 RMK A01 T01470052  RH  053%=      5-min Rain = 0
KAI1 091429Z 05011KT 15/05 A3007 RMK A01 T01480052  RH  053%=      5-min Rain = 0
KAI1 091430Z 05013KT 15/05 A3007 RMK A01 T01490052  RH  052%=      5-min Rain = 0
KAI1 091431Z 05013KT 15/05 A3007 RMK A01 T01480050  RH  052%=      5-min Rain = 0
KAI1 091432Z 05011KT 15/05 A3007 RMK A01 T01460051  RH  053%=      5-min Rain = 0
KAI1 091433Z 06012KT 15/05 A3007 RMK A01 T01460051  RH  053%=      5-min Rain = 0
KAI1 091434Z 06013KT 15/05 A3007 RMK A01 T01470051  RH  053%=      5-min Rain = 0
KAI1 091435Z 06011KT 15/05 A3007 RMK A01 T01470051  RH  053%=      5-min Rain = 0
KAI1 091436Z 06012KT 15/05 A3007 RMK A01 T01470051  RH  053%=      5-min Rain = 0
KAI1 091437Z 06013KT 15/05 A3007 RMK A01 T01470049  RH  052%=      5-min Rain = 0
KAI1 091438Z 05013KT 15/05 A3007 RMK A01 T01470049  RH  052%=      5-min Rain = 0
KAI1 091439Z 06013KT 15/05 A3007 RMK A01 T01460049  RH  052%=      5-min Rain = 0
KAI1 091440Z 06012KT 15/05 A3007 RMK A01 T01460050  RH  052%=      5-min Rain = 0
KAI1 091441Z 06011KT 15/05 A3007 RMK A01 T01460050  RH  053%=      5-min Rain = 0
KAI1 091442Z 06011KT 15/05 A3007 RMK A01 T01460051  RH  053%=      5-min Rain = 0
KAI1 091443Z 07012KT 15/05 A3007 RMK A01 T01470052  RH  053%=      5-min Rain = 0
KAI1 091444Z 06012KT 15/05 A3007 RMK A01 T01470052  RH  053%=      5-min Rain = 0
KAI1 091445Z 07012KT 15/05 A3007 RMK A01 T01480052  RH  053%=      5-min Rain = 0
KAI1 091446Z 06013KT 15/05 A3007 RMK A01 T01480052  RH  053%=      5-min Rain = 0
KAI1 091447Z 06013KT 15/05 A3007 RMK A01 T01460051  RH  053%=      5-min Rain = 0
KAI1 091448Z 06011KT 15/05 A3007 RMK A01 T01460051  RH  053%=      5-min Rain = 0
KAI1 091449Z 07011KT 15/05 A3007 RMK A01 T01450052  RH  053%=      5-min Rain = 0
KAI1 091450Z 07012KT 15/05 A3007 RMK A01 T01460051  RH  053%=      5-min Rain = 0
KAI1 091451Z 07012KT 15/05 A3007 RMK A01 T01460051  RH  053%=      5-min Rain = 0
KAI1 091452Z 07011KT 15/05 A3007 RMK A01 T01450051  RH  053%=      5-min Rain = 0
KAI1 091453Z 07012KT 15/05 A3007 RMK A01 T01450051  RH  053%=      5-min Rain = 0
KAI1 091454Z 07012KT 15/05 A3007 RMK A01 T01450052  RH  054%=      5-min Rain = 0
KAI1 091455Z 06011KT 15/05 A3007 RMK A01 T01460052  RH  053%=      5-min Rain = 0
KAI1 091456Z 07011KT 15/05 A3007 RMK A01 T01470053  RH  053%=      5-min Rain = 0
KAI1 091457Z 07011KT 15/05 A3007 RMK A01 T01480052  RH  053%=      5-min Rain = 0
KAI1 091458Z 06010KT 15/05 A3007 RMK A01 T01470052  RH  053%=      5-min Rain = 0
KAI1 091459Z 06011KT 15/05 A3007 RMK A01 T01470052  RH  053%=      5-min Rain = 0
KAI1 091500Z 06012KT 15/05 A3007 RMK A01 T01480052  RH  053%=      5-min Rain = 0
KAI1 091501Z 06014KT 15/05 A3007 RMK A01 T01480051  RH  052%=      5-min Rain = 0
KAI1 091502Z 06013KT 15/05 A3007 RMK A01 T01470051  RH  052%=      5-min Rain = 0
KAI1 091503Z 06014KT 15/05 A3007 RMK A01 T01460051  RH  053%=      5-min Rain = 0
KAI1 091504Z 06013KT 15/05 A3007 RMK A01 T01460051  RH  053%=      5-min Rain = 0
KAI1 091505Z 06014KT 15/05 A3007 RMK A01 T01450051  RH  053%=      5-min Rain = 0
KAI1 091506Z 06013KT 15/05 A3007 RMK A01 T01450051  RH  053%=      5-min Rain = 0
KAI1 091507Z 07012KT 15/05 A3007 RMK A01 T01450051  RH  053%=      5-min Rain = 0
KAI1 091508Z 07013KT 15/05 A3007 RMK A01 T01450051  RH  053%=      5-min Rain = 0
KAI1 091509Z 06013KT 15/05 A3007 RMK A01 T01450051  RH  053%=      5-min Rain = 0
KAI1 091510Z 06013KT 15/05 A3007 RMK A01 T01450051  RH  053%=      5-min Rain = 0
KAI1 091511Z 06013KT 15/05 A3007 RMK A01 T01450051  RH  053%=      5-min Rain = 0
KAI1 091512Z 06013KT 15/05 A3007 RMK A01 T01450051  RH  053%=      5-min Rain = 0
KAI1 091513Z 06013KT 15/05 A3007 RMK A01 T01450052  RH  054%=      5-min Rain = 0
KAI1 091514Z 07012KT 15/05 A3007 RMK A01 T01460052  RH  053%=      5-min Rain = 0
KAI1 091515Z 07012KT 15/05 A3007 RMK A01 T01470052  RH  053%=      5-min Rain = 0
KAI1 091516Z 07013KT 15/05 A3007 RMK A01 T01480052  RH  053%=      5-min Rain = 0
KAI1 091517Z 07013KT 15/05 A3007 RMK A01 T01470052  RH  053%=      5-min Rain = 0
KAI1 091518Z 06011KT 15/05 A3007 RMK A01 T01460052  RH  053%=      5-min Rain = 0
KAI1 091519Z 07011KT 15/05 A3007 RMK A01 T01460053  RH  054%=      5-min Rain = 0
KAI1 091520Z 07012KT 15/05 A3007 RMK A01 T01470053  RH  053%=      5-min Rain = 0
KAI1 091521Z 07013KT 15/05 A3007 RMK A01 T01470052  RH  053%=      5-min Rain = 0
KAI1 091522Z 07011KT 15/05 A3007 RMK A01 T01470053  RH  053%=      5-min Rain = 0
KAI1 091523Z 07013KT 15/05 A3007 RMK A01 T01470053  RH  053%=      5-min Rain = 0
KAI1 091524Z 07014KT 15/05 A3007 RMK A01 T01460053  RH  054%=      5-min Rain = 0
KAI1 091525Z 07014KT 15/05 A3007 RMK A01 T01450053  RH  054%=      5-min Rain = 0
KAI1 091526Z 07013KT 15/05 A3007 RMK A01 T01450053  RH  054%=      5-min Rain = 0
KAI1 091527Z 07013KT 15/05 A3007 RMK A01 T01450054  RH  054%=      5-min Rain = 0
KAI1 091528Z 07014KT 15/05 A3007 RMK A01 T01460053  RH  054%=      5-min Rain = 0
KAI1 091529Z 07013KT 15/05 A3007 RMK A01 T01450053  RH  054%=      5-min Rain = 0
KAI1 091530Z 07014KT 14/05 A3007 RMK A01 T01440054  RH  054%=      5-min Rain = 0
KAI1 091531Z 07013KT 15/05 A3007 RMK A01 T01450054  RH  055%=      5-min Rain = 0
KAI1 091532Z 08013KT 15/06 A3007 RMK A01 T01450055  RH  055%=      5-min Rain = 0
KAI1 091533Z 07013KT 15/06 A3007 RMK A01 T01460055  RH  054%=      5-min Rain = 0
KAI1 091534Z 07014KT 15/06 A3007 RMK A01 T01470055  RH  054%=      5-min Rain = 0
KAI1 091535Z 08015KT 15/05 A3007 RMK A01 T01490054  RH  053%=      5-min Rain = 0
KAI1 091536Z 08014KT 15/05 A3007 RMK A01 T01480054  RH  053%=      5-min Rain = 0
KAI1 091537Z 07014KT 15/05 A3007 RMK A01 T01480054  RH  053%=      5-min Rain = 0
KAI1 091538Z 07014KT 15/06 A3007 RMK A01 T01470055  RH  054%=      5-min Rain = 0
KAI1 091539Z 07012KT 15/06 A3007 RMK A01 T01470055  RH  054%=      5-min Rain = 0
KAI1 091540Z 07015KT 15/06 A3007 RMK A01 T01490056  RH  054%=      5-min Rain = 0
KAI1 091541Z 07012KT 15/05 A3007 RMK A01 T01480054  RH  053%=      5-min Rain = 0
KAI1 091542Z 06012KT 15/06 A3007 RMK A01 T01480055  RH  054%=      5-min Rain = 0
KAI1 091543Z 07012KT 15/06 A3007 RMK A01 T01490055  RH  053%=      5-min Rain = 0
KAI1 091544Z 07012KT 15/06 A3007 RMK A01 T01490055  RH  054%=      5-min Rain = 0
KAI1 091545Z 07011KT 15/06 A3007 RMK A01 T01490057  RH  054%=      5-min Rain = 0
KAI1 091546Z 08013KT 15/06 A3007 RMK A01 T01500057  RH  054%=      5-min Rain = 0
KAI1 091547Z 08014KT 15/06 A3007 RMK A01 T01500056  RH  053%=      5-min Rain = 0
KAI1 091548Z 08014KT 15/06 A3007 RMK A01 T01510057  RH  053%=      5-min Rain = 0
KAI1 091549Z 09012KT 15/06 A3007 RMK A01 T01500056  RH  053%=      5-min Rain = 0
KAI1 091550Z 08013KT 15/06 A3007 RMK A01 T01500056  RH  053%=      5-min Rain = 0
KAI1 091551Z 08013KT 15/06 A3007 RMK A01 T01510058  RH  054%=      5-min Rain = 0
KAI1 091552Z 07013KT 15/06 A3007 RMK A01 T01520058  RH  053%=      5-min Rain = 0
KAI1 091553Z 07013KT 15/06 A3007 RMK A01 T01520056  RH  053%=      5-min Rain = 0
KAI1 091554Z 08012KT 15/06 A3007 RMK A01 T01510058  RH  054%=      5-min Rain = 0
KAI1 091555Z 07014KT 15/06 A3007 RMK A01 T01530058  RH  053%=      5-min Rain = 0
KAI1 091556Z 07014KT 15/06 A3007 RMK A01 T01540057  RH  052%=      5-min Rain = 0
KAI1 091557Z 08013KT 15/06 A3007 RMK A01 T01540057  RH  053%=      5-min Rain = 0
KAI1 091558Z 08013KT 15/06 A3007 RMK A01 T01540059  RH  053%=      5-min Rain = 0
KAI1 091559Z 08014KT 16/06 A3007 RMK A01 T01560060  RH  053%=      5-min Rain = 0
KAI1 091600Z 07014KT 16/06 A3007 RMK A01 T01570059  RH  052%=      5-min Rain = 0
KAI1 091601Z 08016KT 16/06 A3007 RMK A01 T01550057  RH  052%=      5-min Rain = 0
KAI1 091602Z 07015KT 15/06 A3007 RMK A01 T01540058  RH  053%=      5-min Rain = 0
KAI1 091603Z 07016KT 15/06 A3007 RMK A01 T01540058  RH  053%=      5-min Rain = 0
KAI1 091604Z 07015KT 15/06 A3007 RMK A01 T01540057  RH  052%=      5-min Rain = 0
KAI1 091605Z 07015KT 15/06 A3007 RMK A01 T01520057  RH  053%=      5-min Rain = 0
KAI1 091606Z 07015KT 15/06 A3007 RMK A01 T01510056  RH  053%=      5-min Rain = 0
KAI1 091607Z 07012KT 15/06 A3007 RMK A01 T01500057  RH  054%=      5-min Rain = 0
KAI1 091608Z 08015KT 15/06 A3007 RMK A01 T01510058  RH  054%=      5-min Rain = 0
KAI1 091609Z 07015KT 15/06 A3007 RMK A01 T01510058  RH  054%=      5-min Rain = 0
KAI1 091610Z 07016KT 15/06 A3007 RMK A01 T01500058  RH  054%=      5-min Rain = 0
KAI1 091611Z 07015KT 15/06 A3007 RMK A01 T01510058  RH  054%=      5-min Rain = 0
KAI1 091612Z 07015KT 15/06 A3007 RMK A01 T01510059  RH  054%=      5-min Rain = 0
KAI1 091613Z 06017KT 15/06 A3007 RMK A01 T01520058  RH  053%=      5-min Rain = 0
KAI1 091614Z 06014KT 15/06 A3007 RMK A01 T01510057  RH  053%=      5-min Rain = 0
KAI1 091615Z 06014KT 15/06 A3007 RMK A01 T01500058  RH  054%=      5-min Rain = 0
KAI1 091616Z 08011KT 15/06 A3007 RMK A01 T01510059  RH  054%=      5-min Rain = 0
KAI1 091617Z 09012KT 15/06 A3007 RMK A01 T01540061  RH  054%=      5-min Rain = 0
KAI1 091618Z 07014KT 16/06 A3007 RMK A01 T01570061  RH  053%=      5-min Rain = 0
KAI1 091619Z 07018KT 16/06 A3007 RMK A01 T01560060  RH  053%=      5-min Rain = 0
KAI1 091620Z 07016KT 16/06 A3007 RMK A01 T01550060  RH  053%=      5-min Rain = 0
KAI1 091621Z 07016KT 15/06 A3007 RMK A01 T01540060  RH  053%=      5-min Rain = 0
KAI1 091622Z 07015KT 16/06 A3007 RMK A01 T01550060  RH  053%=      5-min Rain = 0
KAI1 091623Z 07014KT 16/06 A3007 RMK A01 T01550060  RH  053%=      5-min Rain = 0
KAI1 091624Z 07013KT 16/06 A3007 RMK A01 T01560061  RH  053%=      5-min Rain = 0
KAI1 091625Z 08014KT 16/06 A3007 RMK A01 T01560061  RH  053%=      5-min Rain = 0
KAI1 091626Z 09015KT 16/06 A3007 RMK A01 T01560059  RH  052%=      5-min Rain = 0
KAI1 091627Z 09015KT 16/06 A3007 RMK A01 T01560059  RH  052%=      5-min Rain = 0
KAI1 091628Z 07014G19KT 16/06 A3007 RMK A01 T01570061  RH  053%=      5-min Rain = 0
KAI1 091629Z 08015KT 16/06 A3007 RMK A01 T01590063  RH  053%=      5-min Rain = 0
KAI1 091630Z 09014KT 16/06 A3007 RMK A01 T01600060  RH  051%=      5-min Rain = 0
KAI1 091631Z 09015KT 16/06 A3007 RMK A01 T01580060  RH  052%=      5-min Rain = 0
KAI1 091632Z 08016KT 16/06 A3007 RMK A01 T01570059  RH  052%=      5-min Rain = 0
KAI1 091633Z 09014KT 16/06 A3007 RMK A01 T01560060  RH  052%=      5-min Rain = 0
KAI1 091634Z 09015KT 16/06 A3007 RMK A01 T01560060  RH  053%=      5-min Rain = 0
KAI1 091635Z 09015KT 16/06 A3007 RMK A01 T01570060  RH  052%=      5-min Rain = 0
KAI1 091636Z 09014KT 16/06 A3007 RMK A01 T01600060  RH  051%=      5-min Rain = 0
KAI1 091637Z 08017KT 16/06 A3007 RMK A01 T01600060  RH  051%=      5-min Rain = 0
KAI1 091638Z 08015KT 16/06 A3007 RMK A01 T01590058  RH  051%=      5-min Rain = 0
KAI1 091639Z 09015KT 16/06 A3007 RMK A01 T01560059  RH  052%=      5-min Rain = 0
KAI1 091640Z 08017KT 16/06 A3007 RMK A01 T01560060  RH  053%=      5-min Rain = 0
KAI1 091641Z 08017KT 16/06 A3007 RMK A01 T01560060  RH  053%=      5-min Rain = 0
KAI1 091642Z 08016KT 16/06 A3007 RMK A01 T01570059  RH  052%=      5-min Rain = 0
KAI1 091643Z 09015KT 16/06 A3007 RMK A01 T01580059  RH  052%=      5-min Rain = 0
KAI1 091644Z 08014KT 16/06 A3007 RMK A01 T01590060  RH  052%=      5-min Rain = 0
KAI1 091645Z 08014KT 16/06 A3007 RMK A01 T01580061  RH  052%=      5-min Rain = 0
KAI1 091646Z 08013KT 16/06 A3007 RMK A01 T01590062  RH  052%=      5-min Rain = 0
KAI1 091647Z 09013KT 16/06 A3007 RMK A01 T01610062  RH  052%=      5-min Rain = 0
KAI1 091648Z 09015KT 16/06 A3007 RMK A01 T01630062  RH  051%=      5-min Rain = 0
KAI1 091649Z 09014KT 16/06 A3007 RMK A01 T01620061  RH  051%=      5-min Rain = 0
KAI1 091650Z 09016KT 16/06 A3007 RMK A01 T01610060  RH  051%=      5-min Rain = 0
KAI1 091651Z 09014KT 16/06 A3007 RMK A01 T01600059  RH  051%=      5-min Rain = 0
KAI1 091652Z 09014KT 16/06 A3007 RMK A01 T01600060  RH  052%=      5-min Rain = 0
KAI1 091653Z 09015KT 16/06 A3007 RMK A01 T01600061  RH  052%=      5-min Rain = 0
KAI1 091654Z 08016KT 16/06 A3007 RMK A01 T01610062  RH  052%=      5-min Rain = 0
KAI1 091655Z 09015KT 16/06 A3007 RMK A01 T01620062  RH  051%=      5-min Rain = 0
KAI1 091656Z 09014KT 16/06 A3007 RMK A01 T01630061  RH  051%=      5-min Rain = 0
KAI1 091657Z 09015KT 16/06 A3007 RMK A01 T01610061  RH  052%=      5-min Rain = 0
KAI1 091658Z 08015KT 16/06 A3007 RMK A01 T01610061  RH  051%=      5-min Rain = 0
KAI1 091659Z 09015KT 16/06 A3007 RMK A01 T01610061  RH  051%=      5-min Rain = 0
KAI1 091700Z 08014KT 16/06 A3007 RMK A01 T01610061  RH  051%=      5-min Rain = 0
KAI1 091701Z 09017KT 16/06 A3007 RMK A01 T01600061  RH  052%=      5-min Rain = 0
KAI1 091702Z 09014KT 16/06 A3007 RMK A01 T01600060  RH  051%=      5-min Rain = 0
KAI1 091703Z 09013KT 16/06 A3007 RMK A01 T01600061  RH  052%=      5-min Rain = 0
KAI1 091704Z 07014KT 16/06 A3007 RMK A01 T01610061  RH  052%=      5-min Rain = 0
KAI1 091705Z 08015KT 16/06 A3007 RMK A01 T01610062  RH  052%=      5-min Rain = 0
KAI1 091706Z 08012KT 16/06 A3007 RMK A01 T01600062  RH  052%=      5-min Rain = 0
KAI1 091707Z 08014KT 16/06 A3007 RMK A01 T01630064  RH  052%=      5-min Rain = 0
KAI1 091708Z 09014KT 16/06 A3007 RMK A01 T01640062  RH  051%=      5-min Rain = 0
KAI1 091709Z 08015KT 16/06 A3007 RMK A01 T01630061  RH  051%=      5-min Rain = 0
KAI1 091710Z 08014KT 16/06 A3007 RMK A01 T01620062  RH  051%=      5-min Rain = 0
KAI1 091711Z 08013KT 16/06 A3007 RMK A01 T01620063  RH  052%=      5-min Rain = 0
KAI1 091712Z 07013KT 16/06 A3007 RMK A01 T01630063  RH  052%=      5-min Rain = 0
KAI1 091713Z 08013KT 17/06 A3008 RMK A01 T01650063  RH  051%=      5-min Rain = 0
KAI1 091714Z 08011KT 16/06 A3007 RMK A01 T01640060  RH  050%=      5-min Rain = 0
KAI1 091715Z 09010KT 16/06 A3007 RMK A01 T01630062  RH  051%=      5-min Rain = 0
KAI1 091716Z 08012KT 17/06 A3008 RMK A01 T01650063  RH  051%=      5-min Rain = 0
KAI1 091717Z 07010KT 16/06 A3008 RMK A01 T01640063  RH  051%=      5-min Rain = 0
KAI1 091718Z 08012G17KT 16/06 A3008 RMK A01 T01640063  RH  051%=      5-min Rain = 0
KAI1 091719Z 07013KT 16/06 A3008 RMK A01 T01640062  RH  051%=      5-min Rain = 0
KAI1 091720Z 08011KT 16/06 A3008 RMK A01 T01620062  RH  052%=      5-min Rain = 0
KAI1 091721Z 08009KT 16/06 A3008 RMK A01 T01630063  RH  051%=      5-min Rain = 0
KAI1 091722Z 07010KT 16/06 A3008 RMK A01 T01640064  RH  051%=      5-min Rain = 0
KAI1 091723Z 09009KT 17/06 A3008 RMK A01 T01650064  RH  051%=      5-min Rain = 0
KAI1 091724Z 10009KT 16/06 A3008 RMK A01 T01640063  RH  051%=      5-min Rain = 0
KAI1 091725Z 10009KT 17/06 A3008 RMK A01 T01680062  RH  050%=      5-min Rain = 0
KAI1 091726Z 08011KT 17/06 A3009 RMK A01 T01680061  RH  049%=      5-min Rain = 0
KAI1 091727Z 08010KT 17/06 A3009 RMK A01 T01650064  RH  051%=      5-min Rain = 0
KAI1 091728Z 08009KT 17/06 A3009 RMK A01 T01650063  RH  051%=      5-min Rain = 0
KAI1 091729Z 07009KT 16/06 A3009 RMK A01 T01630063  RH  052%=      5-min Rain = 0
KAI1 091730Z 07011KT 16/06 A3009 RMK A01 T01630064  RH  052%=      5-min Rain = 0
KAI1 091731Z 07010KT 16/06 A3009 RMK A01 T01630063  RH  051%=      5-min Rain = 0
KAI1 091732Z 07011KT 16/06 A3009 RMK A01 T01630063  RH  052%=      5-min Rain = 0
KAI1 091733Z 08010KT 16/06 A3009 RMK A01 T01620063  RH  052%=      5-min Rain = 0
KAI1 091734Z 08011KT 16/06 A3009 RMK A01 T01640063  RH  051%=      5-min Rain = 0
KAI1 091735Z 08010KT 17/06 A3009 RMK A01 T01650063  RH  051%=      5-min Rain = 0
KAI1 091736Z 09010KT 17/06 A3009 RMK A01 T01650064  RH  051%=      5-min Rain = 0
KAI1 091737Z 09008KT 17/06 A3009 RMK A01 T01670061  RH  050%=      5-min Rain = 0
KAI1 091738Z 08011KT 17/06 A3009 RMK A01 T01660061  RH  050%=      5-min Rain = 0
KAI1 091739Z 09010KT 17/06 A3009 RMK A01 T01660059  RH  049%=      5-min Rain = 0
KAI1 091740Z 09008KT 17/06 A3009 RMK A01 T01650059  RH  049%=      5-min Rain = 0
KAI1 091741Z 09008KT 17/06 A3009 RMK A01 T01650060  RH  050%=      5-min Rain = 0
KAI1 091742Z 09009KT 17/06 A3009 RMK A01 T01660060  RH  049%=      5-min Rain = 0
KAI1 091743Z 09008KT 16/06 A3009 RMK A01 T01640060  RH  050%=      5-min Rain = 0
KAI1 091744Z 07009KT 16/06 A3009 RMK A01 T01630061  RH  051%=      5-min Rain = 0
KAI1 091745Z 10010KT 16/06 A3009 RMK A01 T01630061  RH  051%=      5-min Rain = 0
KAI1 091746Z 11009KT 17/06 A3009 RMK A01 T01670061  RH  049%=      5-min Rain = 0
KAI1 091747Z 10007KT 17/06 A3009 RMK A01 T01680060  RH  049%=      5-min Rain = 0
KAI1 091748Z 09009KT 17/06 A3009 RMK A01 T01690061  RH  049%=      5-min Rain = 0
KAI1 091749Z 09010KT 17/06 A3009 RMK A01 T01670061  RH  049%=      5-min Rain = 0
KAI1 091750Z 09011KT 17/06 A3009 RMK A01 T01650062  RH  050%=      5-min Rain = 0
KAI1 091751Z 08013KT 17/06 A3009 RMK A01 T01670062  RH  050%=      5-min Rain = 0
KAI1 091752Z 10011KT 17/06 A3009 RMK A01 T01660061  RH  050%=      5-min Rain = 0
KAI1 091753Z 11009KT 17/06 A3009 RMK A01 T01650061  RH  050%=      5-min Rain = 0
KAI1 091754Z 10009KT 16/06 A3009 RMK A01 T01640060  RH  050%=      5-min Rain = 0
KAI1 091755Z 10011KT 16/06 A3009 RMK A01 T01640062  RH  051%=      5-min Rain = 0
KAI1 091756Z 10009KT 17/06 A3009 RMK A01 T01670061  RH  050%=      5-min Rain = 0
KAI1 091757Z 11007KT 17/06 A3009 RMK A01 T01670061  RH  049%=      5-min Rain = 0
KAI1 091758Z 09011KT 17/06 A3009 RMK A01 T01670061  RH  050%=      5-min Rain = 0
KAI1 091759Z 10011KT 17/06 A3009 RMK A01 T01670061  RH  049%=      5-min Rain = 0
KAI1 091800Z 09008KT 17/06 A3009 RMK A01 T01660060  RH  050%=      5-min Rain = 0
KAI1 091801Z 08007KT 17/06 A3009 RMK A01 T01660062  RH  050%=      5-min Rain = 0
KAI1 091802Z 07008KT 17/06 A3009 RMK A01 T01660061  RH  050%=      5-min Rain = 0
KAI1 091803Z 08010KT 17/06 A3009 RMK A01 T01650063  RH  051%=      5-min Rain = 0
KAI1 091804Z 09010KT 17/06 A3009 RMK A01 T01660062  RH  050%=      5-min Rain = 0
KAI1 091805Z 09008KT 17/06 A3009 RMK A01 T01670061  RH  050%=      5-min Rain = 0
KAI1 091806Z 07010KT 17/06 A3009 RMK A01 T01660062  RH  050%=      5-min Rain = 0
KAI1 091807Z 08010KT 17/06 A3009 RMK A01 T01660062  RH  050%=      5-min Rain = 0
KAI1 091808Z 10010KT 17/06 A3009 RMK A01 T01680063  RH  050%=      5-min Rain = 0
KAI1 091809Z 10010KT 17/06 A3009 RMK A01 T01700061  RH  049%=      5-min Rain = 0
KAI1 091810Z 11009KT 17/06 A3009 RMK A01 T01690061  RH  049%=      5-min Rain = 0
KAI1 091811Z 10008G13KT 17/06 A3009 RMK A01 T01690062  RH  049%=      5-min Rain = 0
KAI1 091812Z 11010KT 17/06 A3009 RMK A01 T01680062  RH  049%=      5-min Rain = 0
KAI1 091813Z 11009KT 17/06 A3008 RMK A01 T01680062  RH  049%=      5-min Rain = 0
KAI1 091814Z 10009KT 17/06 A3008 RMK A01 T01680063  RH  050%=      5-min Rain = 0
KAI1 091815Z 11009KT 17/06 A3008 RMK A01 T01670062  RH  050%=      5-min Rain = 0
KAI1 091816Z 11010KT 17/06 A3008 RMK A01 T01700062  RH  049%=      5-min Rain = 0
KAI1 091817Z 11010KT 17/06 A3008 RMK A01 T01720062  RH  048%=      5-min Rain = 0
KAI1 091818Z 12009KT 17/06 A3008 RMK A01 T01700061  RH  049%=      5-min Rain = 0
KAI1 091819Z 11009KT 17/06 A3008 RMK A01 T01680061  RH  049%=      5-min Rain = 0
KAI1 091820Z 09010KT 17/06 A3008 RMK A01 T01680061  RH  049%=      5-min Rain = 0
KAI1 091821Z 09009KT 17/06 A3008 RMK A01 T01690061  RH  049%=      5-min Rain = 0
KAI1 091822Z 10009KT 17/06 A3008 RMK A01 T01710061  RH  048%=      5-min Rain = 0
KAI1 091823Z 09008KT 17/06 A3008 RMK A01 T01710060  RH  048%=      5-min Rain = 0
KAI1 091824Z 12010KT 17/06 A3008 RMK A01 T01720061  RH  048%=      5-min Rain = 0
KAI1 091825Z 10009KT 17/06 A3008 RMK A01 T01720061  RH  048%=      5-min Rain = 0
KAI1 091826Z 11008KT 17/06 A3007 RMK A01 T01720060  RH  048%=      5-min Rain = 0
KAI1 091827Z 11011KT 17/06 A3007 RMK A01 T01720061  RH  048%=      5-min Rain = 0
KAI1 091828Z 10012KT 17/06 A3007 RMK A01 T01720060  RH  048%=      5-min Rain = 0
KAI1 091829Z 11010KT 17/06 A3007 RMK A01 T01730061  RH  048%=      5-min Rain = 0
KAI1 091830Z 10009KT 17/06 A3007 RMK A01 T01740062  RH  047%=      5-min Rain = 0
KAI1 091831Z 10009KT 17/06 A3007 RMK A01 T01740061  RH  048%=      5-min Rain = 0
KAI1 091832Z 10006KT 17/06 A3007 RMK A01 T01720060  RH  048%=      5-min Rain = 0
KAI1 091833Z 10006KT 17/06 A3007 RMK A01 T01700061  RH  049%=      5-min Rain = 0
KAI1 091834Z 10010KT 17/06 A3008 RMK A01 T01720062  RH  048%=      5-min Rain = 0
KAI1 091835Z 10009KT 18/06 A3007 RMK A01 T01750062  RH  047%=      5-min Rain = 0
KAI1 091836Z 10009KT 17/06 A3007 RMK A01 T01740061  RH  047%=      5-min Rain = 0
KAI1 091837Z 12011KT 17/06 A3007 RMK A01 T01740062  RH  048%=      5-min Rain = 0
KAI1 091838Z 11011KT 17/06 A3008 RMK A01 T01740061  RH  047%=      5-min Rain = 0
KAI1 091839Z 12010KT 17/06 A3008 RMK A01 T01730061  RH  048%=      5-min Rain = 0
KAI1 091840Z 12010KT 17/06 A3007 RMK A01 T01740061  RH  047%=      5-min Rain = 0
KAI1 091841Z 12008KT 17/06 A3007 RMK A01 T01720060  RH  048%=      5-min Rain = 0
KAI1 091842Z 13006KT 17/06 A3007 RMK A01 T01710060  RH  048%=      5-min Rain = 0
KAI1 091843Z 12004KT 17/06 A3007 RMK A01 T01700059  RH  048%=      5-min Rain = 0
KAI1 091844Z 14003KT 17/06 A3007 RMK A01 T01690060  RH  048%=      5-min Rain = 0
KAI1 091845Z 13005G10KT 17/06 A3007 RMK A01 T01700060  RH  048%=      5-min Rain = 0
KAI1 091846Z 11012KT 17/06 A3007 RMK A01 T01720061  RH  048%=      5-min Rain = 0
KAI1 091847Z 10009KT 17/06 A3007 RMK A01 T01730061  RH  048%=      5-min Rain = 0
KAI1 091848Z 11007KT 17/06 A3007 RMK A01 T01730061  RH  048%=      5-min Rain = 0
KAI1 091849Z 11006KT 17/06 A3007 RMK A01 T01730062  RH  048%=      5-min Rain = 0
KAI1 091850Z 11009KT 17/06 A3008 RMK A01 T01730062  RH  048%=      5-min Rain = 0
KAI1 091851Z 11010KT 18/06 A3007 RMK A01 T01750063  RH  048%=      5-min Rain = 0
KAI1 091852Z 11010KT 18/06 A3007 RMK A01 T01770063  RH  047%=      5-min Rain = 0
KAI1 091853Z 11008KT 18/06 A3007 RMK A01 T01750061  RH  047%=      5-min Rain = 0
KAI1 091854Z 12009KT 17/06 A3007 RMK A01 T01710061  RH  048%=      5-min Rain = 0
KAI1 091855Z 12011KT 17/06 A3007 RMK A01 T01710062  RH  049%=      5-min Rain = 0
KAI1 091856Z 13010KT 17/06 A3007 RMK A01 T01710061  RH  048%=      5-min Rain = 0
KAI1 091857Z 12009KT 17/06 A3007 RMK A01 T01720062  RH  048%=      5-min Rain = 0
KAI1 091858Z 09009KT 17/06 A3007 RMK A01 T01720062  RH  048%=      5-min Rain = 0
KAI1 091859Z 10008KT 17/06 A3007 RMK A01 T01730062  RH  048%=      5-min Rain = 0
KAI1 091900Z 11008KT 17/06 A3007 RMK A01 T01730062  RH  048%=      5-min Rain = 0
KAI1 091901Z 13009KT 17/06 A3007 RMK A01 T01720063  RH  049%=      5-min Rain = 0
KAI1 091902Z 13008KT 17/06 A3007 RMK A01 T01720062  RH  048%=      5-min Rain = 0
KAI1 091903Z 13006KT 17/06 A3007 RMK A01 T01710062  RH  049%=      5-min Rain = 0
KAI1 091904Z 12010KT 17/06 A3007 RMK A01 T01720063  RH  049%=      5-min Rain = 0
KAI1 091905Z 12011KT 17/06 A3007 RMK A01 T01730063  RH  048%=      5-min Rain = 0
KAI1 091906Z 11009KT 17/06 A3007 RMK A01 T01720063  RH  049%=      5-min Rain = 0
KAI1 091907Z 10007KT 17/06 A3007 RMK A01 T01710062  RH  049%=      5-min Rain = 0
KAI1 091908Z 11006G11KT 17/06 A3007 RMK A01 T01700063  RH  049%=      5-min Rain = 0
KAI1 091909Z 10009KT 17/06 A3007 RMK A01 T01700063  RH  049%=      5-min Rain = 0
KAI1 091910Z 09009KT 17/06 A3007 RMK A01 T01710063  RH  049%=      5-min Rain = 0
KAI1 091911Z 10010KT 18/07 A3007 RMK A01 T01750065  RH  048%=      5-min Rain = 0
KAI1 091912Z 10009KT 18/06 A3007 RMK A01 T01760064  RH  048%=      5-min Rain = 0
KAI1 091913Z 09010KT 18/06 A3007 RMK A01 T01750064  RH  048%=      5-min Rain = 0
KAI1 091914Z 11011KT 17/06 A3007 RMK A01 T01740063  RH  048%=      5-min Rain = 0
KAI1 091915Z 12010KT 17/06 A3006 RMK A01 T01730063  RH  048%=      5-min Rain = 0
KAI1 091916Z 12013KT 17/06 A3006 RMK A01 T01730063  RH  048%=      5-min Rain = 0
KAI1 091917Z 12010KT 17/06 A3006 RMK A01 T01730063  RH  048%=      5-min Rain = 0
KAI1 091918Z 11008KT 17/06 A3006 RMK A01 T01740064  RH  048%=      5-min Rain = 0
KAI1 091919Z 11008KT 18/06 A3006 RMK A01 T01750063  RH  048%=      5-min Rain = 0
KAI1 091920Z 12010KT 18/07 A3006 RMK A01 T01750065  RH  049%=      5-min Rain = 0
KAI1 091921Z 13009KT 18/06 A3006 RMK A01 T01770064  RH  048%=      5-min Rain = 0
KAI1 091922Z 12010KT 18/06 A3006 RMK A01 T01780064  RH  047%=      5-min Rain = 0
KAI1 091923Z 12009KT 18/06 A3006 RMK A01 T01780064  RH  047%=      5-min Rain = 0
KAI1 091924Z 12007KT 18/06 A3006 RMK A01 T01760063  RH  048%=      5-min Rain = 0
KAI1 091925Z 12011KT 18/06 A3006 RMK A01 T01760064  RH  048%=      5-min Rain = 0
KAI1 091926Z 13010KT 18/06 A3006 RMK A01 T01770064  RH  047%=      5-min Rain = 0
KAI1 091927Z 11011KT 18/06 A3006 RMK A01 T01760063  RH  048%=      5-min Rain = 0
KAI1 091928Z 13009KT 18/06 A3006 RMK A01 T01750063  RH  048%=      5-min Rain = 0
KAI1 091929Z 12010KT 17/06 A3006 RMK A01 T01740063  RH  048%=      5-min Rain = 0
KAI1 091930Z 12010KT 18/06 A3006 RMK A01 T01750063  RH  048%=      5-min Rain = 0
KAI1 091931Z 13011KT 18/06 A3006 RMK A01 T01750063  RH  048%=      5-min Rain = 0
KAI1 091932Z 12011KT 18/06 A3006 RMK A01 T01750063  RH  048%=      5-min Rain = 0
KAI1 091933Z 12011KT 18/06 A3006 RMK A01 T01760064  RH  048%=      5-min Rain = 0
KAI1 091934Z 12011KT 18/06 A3006 RMK A01 T01760064  RH  048%=      5-min Rain = 0
KAI1 091935Z 11013KT 18/06 A3005 RMK A01 T01750064  RH  048%=      5-min Rain = 0
KAI1 091936Z 11011KT 18/06 A3005 RMK A01 T01750064  RH  048%=      5-min Rain = 0
KAI1 091937Z 12010KT 18/06 A3005 RMK A01 T01750064  RH  048%=      5-min Rain = 0
KAI1 091938Z 13011KT 17/06 A3005 RMK A01 T01740064  RH  048%=      5-min Rain = 0
KAI1 091939Z 11011KT 17/06 A3005 RMK A01 T01740064  RH  048%=      5-min Rain = 0
KAI1 091940Z 11011KT 18/06 A3005 RMK A01 T01760064  RH  048%=      5-min Rain = 0
KAI1 091941Z 11012KT 18/06 A3005 RMK A01 T01760064  RH  048%=      5-min Rain = 0
KAI1 091942Z 11012KT 18/07 A3005 RMK A01 T01760065  RH  048%=      5-min Rain = 0
KAI1 091943Z 10010KT 18/06 A3005 RMK A01 T01750064  RH  048%=      5-min Rain = 0
KAI1 091944Z 11008KT 17/06 A3005 RMK A01 T01740064  RH  048%=      5-min Rain = 0
KAI1 091945Z 10009KT 18/07 A3006 RMK A01 T01760065  RH  048%=      5-min Rain = 0
KAI1 091946Z 12008KT 18/07 A3006 RMK A01 T01770065  RH  048%=      5-min Rain = 0
KAI1 091947Z 12008KT 18/07 A3006 RMK A01 T01770065  RH  048%=      5-min Rain = 0
KAI1 091948Z 12007KT 18/07 A3006 RMK A01 T01780065  RH  047%=      5-min Rain = 0
KAI1 091949Z 12007KT 18/07 A3006 RMK A01 T01770065  RH  048%=      5-min Rain = 0
KAI1 091950Z 12009KT 18/07 A3006 RMK A01 T01770065  RH  048%=      5-min Rain = 0
KAI1 091951Z 12007KT 18/07 A3006 RMK A01 T01770066  RH  048%=      5-min Rain = 0
KAI1 091952Z 12006KT 18/07 A3006 RMK A01 T01760065  RH  048%=      5-min Rain = 0
KAI1 091953Z 09006KT 18/07 A3006 RMK A01 T01760065  RH  048%=      5-min Rain = 0
KAI1 091954Z 09007KT 18/07 A3006 RMK A01 T01770065  RH  048%=      5-min Rain = 0
KAI1 091955Z 07008KT 18/07 A3006 RMK A01 T01760065  RH  048%=      5-min Rain = 0
KAI1 091956Z 09008KT 18/07 A3006 RMK A01 T01750065  RH  048%=      5-min Rain = 0
KAI1 091957Z 09007KT 18/07 A3006 RMK A01 T01750065  RH  048%=      5-min Rain = 0
KAI1 091958Z 09008KT 17/07 A3006 RMK A01 T01740066  RH  049%=      5-min Rain = 0
KAI1 091959Z 08010KT 18/07 A3006 RMK A01 T01760066  RH  049%=      5-min Rain = 0
KAI1 092000Z 10009KT 18/07 A3006 RMK A01 T01760066  RH  048%=      5-min Rain = 0
KAI1 092001Z 10009KT 18/07 A3006 RMK A01 T01760066  RH  048%=      5-min Rain = 0
KAI1 092002Z 09008KT 18/07 A3006 RMK A01 T01750066  RH  049%=      5-min Rain = 0
KAI1 092003Z 10006KT 18/07 A3006 RMK A01 T01750066  RH  049%=      5-min Rain = 0
KAI1 092004Z 10009KT 17/07 A3006 RMK A01 T01740065  RH  049%=      5-min Rain = 0
KAI1 092005Z 09008KT 17/07 A3006 RMK A01 T01740065  RH  049%=      5-min Rain = 0
KAI1 092006Z 08009KT 17/07 A3006 RMK A01 T01740065  RH  049%=      5-min Rain = 0
KAI1 092007Z 08008KT 18/07 A3005 RMK A01 T01750065  RH  048%=      5-min Rain = 0
KAI1 092008Z 08008KT 17/07 A3005 RMK A01 T01740065  RH  049%=      5-min Rain = 0
KAI1 092009Z 08008KT 18/07 A3005 RMK A01 T01750066  RH  048%=      5-min Rain = 0
KAI1 092010Z 08008KT 18/07 A3005 RMK A01 T01750065  RH  048%=      5-min Rain = 0
KAI1 092011Z 11008KT 18/07 A3005 RMK A01 T01750066  RH  049%=      5-min Rain = 0
KAI1 092012Z 10009KT 18/07 A3005 RMK A01 T01760066  RH  048%=      5-min Rain = 0
KAI1 092013Z 09009KT 18/07 A3005 RMK A01 T01770066  RH  048%=      5-min Rain = 0
KAI1 092014Z 10009KT 18/07 A3005 RMK A01 T01770065  RH  048%=      5-min Rain = 0
KAI1 092015Z 09009KT 18/07 A3005 RMK A01 T01770066  RH  048%=      5-min Rain = 0
KAI1 092016Z 08010KT 18/07 A3005 RMK A01 T01760067  RH  049%=      5-min Rain = 0
KAI1 092017Z 07011KT 18/07 A3005 RMK A01 T01750066  RH  049%=      5-min Rain = 0
KAI1 092018Z 07011KT 18/07 A3005 RMK A01 T01750066  RH  049%=      5-min Rain = 0
KAI1 092019Z 07011KT 18/07 A3005 RMK A01 T01750067  RH  049%=      5-min Rain = 0
KAI1 092020Z 07010KT 17/07 A3005 RMK A01 T01740066  RH  049%=      5-min Rain = 0
KAI1 092021Z 07010KT 18/07 A3005 RMK A01 T01750067  RH  049%=      5-min Rain = 0
KAI1 092022Z 08010KT 18/07 A3005 RMK A01 T01760067  RH  049%=      5-min Rain = 0
KAI1 092023Z 08008KT 18/07 A3005 RMK A01 T01760066  RH  049%=      5-min Rain = 0
KAI1 092024Z 07009KT 18/07 A3005 RMK A01 T01750066  RH  049%=      5-min Rain = 0
KAI1 092025Z 07008KT 18/07 A3004 RMK A01 T01750065  RH  049%=      5-min Rain = 0
KAI1 092026Z 06007KT 17/07 A3004 RMK A01 T01740065  RH  049%=      5-min Rain = 0
KAI1 092027Z 07011KT 18/07 A3004 RMK A01 T01750067  RH  049%=      5-min Rain = 0
KAI1 092028Z 11011KT 18/07 A3004 RMK A01 T01770066  RH  048%=      5-min Rain = 0
KAI1 092029Z 10008KT 18/07 A3004 RMK A01 T01770066  RH  048%=      5-min Rain = 0
KAI1 092030Z 08008KT 18/07 A3004 RMK A01 T01760066  RH  048%=      5-min Rain = 0
KAI1 092031Z 09010KT 18/07 A3004 RMK A01 T01780067  RH  048%=      5-min Rain = 0
KAI1 092032Z 09011KT 18/07 A3004 RMK A01 T01780066  RH  048%=      5-min Rain = 0
KAI1 092033Z 08008KT 18/07 A3004 RMK A01 T01760065  RH  048%=      5-min Rain = 0
KAI1 092034Z 08008KT 18/07 A3004 RMK A01 T01750065  RH  048%=      5-min Rain = 0
KAI1 092035Z 08011KT 18/07 A3003 RMK A01 T01750066  RH  049%=      5-min Rain = 0
KAI1 092036Z 09009KT 18/07 A3003 RMK A01 T01750066  RH  049%=      5-min Rain = 0
KAI1 092037Z 09008KT 18/07 A3003 RMK A01 T01750065  RH  048%=      5-min Rain = 0
KAI1 092038Z 09009KT 17/07 A3003 RMK A01 T01740065  RH  049%=      5-min Rain = 0
KAI1 092039Z 07008KT 17/07 A3003 RMK A01 T01740065  RH  049%=      5-min Rain = 0
KAI1 092040Z 07011KT 17/07 A3003 RMK A01 T01740067  RH  049%=      5-min Rain = 0
KAI1 092041Z 07011KT 17/07 A3003 RMK A01 T01740066  RH  049%=      5-min Rain = 0
KAI1 092042Z 08008KT 17/07 A3003 RMK A01 T01740066  RH  049%=      5-min Rain = 0
KAI1 092043Z 09008KT 18/07 A3003 RMK A01 T01750067  RH  049%=      5-min Rain = 0
KAI1 092044Z 09007KT 18/07 A3003 RMK A01 T01770066  RH  048%=      5-min Rain = 0
KAI1 092045Z 08008KT 18/07 A3003 RMK A01 T01760067  RH  049%=      5-min Rain = 0
KAI1 092046Z 08009KT 18/07 A3003 RMK A01 T01760067  RH  049%=      5-min Rain = 0
KAI1 092047Z 08008KT 18/07 A3003 RMK A01 T01750067  RH  049%=      5-min Rain = 0
KAI1 092048Z 09010KT 18/07 A3003 RMK A01 T01750068  RH  050%=      5-min Rain = 0
KAI1 092049Z 09009KT 18/07 A3003 RMK A01 T01760067  RH  049%=      5-min Rain = 0
KAI1 092050Z 09008KT 18/07 A3003 RMK A01 T01770067  RH  048%=      5-min Rain = 0
KAI1 092051Z 08008KT 18/07 A3003 RMK A01 T01770067  RH  048%=      5-min Rain = 0
KAI1 092052Z 08009KT 18/07 A3003 RMK A01 T01770067  RH  048%=      5-min Rain = 0
KAI1 092053Z 08009KT 18/07 A3003 RMK A01 T01770066  RH  048%=      5-min Rain = 0
KAI1 092054Z 06007KT 18/07 A3003 RMK A01 T01750066  RH  048%=      5-min Rain = 0
KAI1 092055Z 06008KT 17/07 A3003 RMK A01 T01740065  RH  049%=      5-min Rain = 0
KAI1 092056Z 07008KT 17/07 A3003 RMK A01 T01740066  RH  049%=      5-min Rain = 0
KAI1 092057Z 08010KT 18/07 A3003 RMK A01 T01750067  RH  049%=      5-min Rain = 0
KAI1 092058Z 07010KT 18/07 A3003 RMK A01 T01760066  RH  049%=      5-min Rain = 0
KAI1 092059Z 07009KT 18/07 A3003 RMK A01 T01750067  RH  049%=      5-min Rain = 0
KAI1 092100Z 07009KT 18/07 A3003 RMK A01 T01750067  RH  049%=      5-min Rain = 0
KAI1 092101Z 08009KT 18/07 A3003 RMK A01 T01760067  RH  049%=      5-min Rain = 0
KAI1 092102Z 10009KT 18/07 A3003 RMK A01 T01770066  RH  048%=      5-min Rain = 0
KAI1 092103Z 10010G15KT 18/07 A3002 RMK A01 T01770066  RH  048%=      5-min Rain = 0
KAI1 092104Z 07012KT 18/07 A3003 RMK A01 T01770067  RH  049%=      5-min Rain = 0
KAI1 092105Z 06010KT 18/07 A3002 RMK A01 T01770066  RH  048%=      5-min Rain = 0
KAI1 092106Z 07007KT 18/07 A3002 RMK A01 T01770066  RH  048%=      5-min Rain = 0
KAI1 092107Z 10007KT 18/07 A3002 RMK A01 T01760067  RH  049%=      5-min Rain = 0
KAI1 092108Z 09007KT 18/07 A3002 RMK A01 T01770066  RH  048%=      5-min Rain = 0
KAI1 092109Z 08009KT 18/07 A3002 RMK A01 T01780067  RH  048%=      5-min Rain = 0
KAI1 092110Z 09008KT 18/07 A3002 RMK A01 T01790067  RH  048%=      5-min Rain = 0
KAI1 092111Z 09008KT 18/07 A3002 RMK A01 T01790067  RH  048%=      5-min Rain = 0
KAI1 092112Z 10008KT 18/07 A3002 RMK A01 T01790067  RH  048%=      5-min Rain = 0
KAI1 092113Z 09009KT 18/07 A3002 RMK A01 T01780066  RH  048%=      5-min Rain = 0
KAI1 092114Z 09009KT 18/07 A3002 RMK A01 T01770066  RH  048%=      5-min Rain = 0
KAI1 092115Z 09010KT 18/07 A3002 RMK A01 T01750066  RH  049%=      5-min Rain = 0
KAI1 092116Z 10008KT 17/07 A3002 RMK A01 T01740066  RH  049%=      5-min Rain = 0
KAI1 092117Z 08009KT 18/07 A3001 RMK A01 T01750067  RH  049%=      5-min Rain = 0
KAI1 092118Z 07008KT 18/07 A3001 RMK A01 T01760066  RH  049%=      5-min Rain = 0
KAI1 092119Z 08009KT 18/07 A3001 RMK A01 T01770067  RH  049%=      5-min Rain = 0
KAI1 092120Z 10009KT 18/07 A3001 RMK A01 T01770066  RH  048%=      5-min Rain = 0
KAI1 092121Z 09006KT 18/07 A3001 RMK A01 T01760066  RH  048%=      5-min Rain = 0
KAI1 092122Z 07009KT 18/07 A3001 RMK A01 T01750067  RH  049%=      5-min Rain = 0
KAI1 092123Z 08009KT 18/07 A3001 RMK A01 T01760067  RH  049%=      5-min Rain = 0
KAI1 092124Z 08010KT 18/07 A3001 RMK A01 T01760067  RH  049%=      5-min Rain = 0
KAI1 092125Z 09009KT 18/07 A3001 RMK A01 T01760067  RH  049%=      5-min Rain = 0
KAI1 092126Z 09008KT 18/07 A3001 RMK A01 T01760067  RH  049%=      5-min Rain = 0
KAI1 092127Z 09009KT 18/07 A3001 RMK A01 T01760068  RH  049%=      5-min Rain = 0
KAI1 092128Z 07009KT 18/07 A3001 RMK A01 T01780068  RH  049%=      5-min Rain = 0
KAI1 092129Z 07009KT 18/07 A3001 RMK A01 T01780068  RH  048%=      5-min Rain = 0
KAI1 092130Z 06008KT 18/07 A3001 RMK A01 T01780068  RH  048%=      5-min Rain = 0
KAI1 092131Z 08009KT 18/07 A3001 RMK A01 T01770068  RH  049%=      5-min Rain = 0
KAI1 092132Z 08009KT 18/07 A3001 RMK A01 T01770069  RH  049%=      5-min Rain = 0
KAI1 092133Z 08010KT 18/07 A3001 RMK A01 T01780068  RH  049%=      5-min Rain = 0
KAI1 092134Z 06011KT 18/07 A3001 RMK A01 T01770067  RH  048%=      5-min Rain = 0
KAI1 092135Z 06010KT 18/07 A3001 RMK A01 T01750066  RH  049%=      5-min Rain = 0
KAI1 092136Z 07010KT 18/07 A3001 RMK A01 T01750068  RH  049%=      5-min Rain = 0
KAI1 092137Z 08010KT 18/07 A3001 RMK A01 T01750068  RH  049%=      5-min Rain = 0
KAI1 092138Z 08009KT 18/07 A3001 RMK A01 T01760068  RH  049%=      5-min Rain = 0
KAI1 092139Z 08011KT 18/07 A3001 RMK A01 T01760068  RH  049%=      5-min Rain = 0
KAI1 092140Z 08009KT 18/07 A3001 RMK A01 T01750067  RH  049%=      5-min Rain = 0
KAI1 092141Z 08009KT 17/07 A3001 RMK A01 T01740068  RH  049%=      5-min Rain = 0
KAI1 092142Z 07011KT 18/07 A3001 RMK A01 T01750068  RH  049%=      5-min Rain = 0
KAI1 092143Z 06010KT 18/07 A3001 RMK A01 T01770068  RH  049%=      5-min Rain = 0
KAI1 092144Z 06010KT 18/07 A3001 RMK A01 T01760067  RH  049%=      5-min Rain = 0
KAI1 092145Z 07010KT 18/07 A3001 RMK A01 T01750067  RH  049%=      5-min Rain = 0
KAI1 092146Z 06010KT 18/07 A3001 RMK A01 T01750067  RH  049%=      5-min Rain = 0
KAI1 092147Z 08010KT 17/07 A3001 RMK A01 T01740067  RH  049%=      5-min Rain = 0
KAI1 092148Z 07010KT 17/07 A3001 RMK A01 T01740067  RH  049%=      5-min Rain = 0
KAI1 092149Z 08010KT 17/07 A3001 RMK A01 T01730067  RH  050%=      5-min Rain = 0
KAI1 092150Z 08009KT 17/07 A3001 RMK A01 T01720067  RH  050%=      5-min Rain = 0
KAI1 092151Z 07008KT 17/07 A3001 RMK A01 T01720067  RH  050%=      5-min Rain = 0
KAI1 092152Z 06009KT 17/07 A3001 RMK A01 T01720067  RH  050%=      5-min Rain = 0
KAI1 092153Z 07009KT 17/07 A3001 RMK A01 T01720066  RH  050%=      5-min Rain = 0
KAI1 092154Z 07009KT 17/07 A3001 RMK A01 T01730067  RH  050%=      5-min Rain = 0
KAI1 092155Z 07009KT 17/07 A3001 RMK A01 T01730066  RH  049%=      5-min Rain = 0
KAI1 092156Z 07009KT 17/07 A3001 RMK A01 T01740066  RH  049%=      5-min Rain = 0
KAI1 092157Z 08009KT 17/07 A3001 RMK A01 T01730066  RH  049%=      5-min Rain = 0
KAI1 092158Z 08010KT 17/07 A3001 RMK A01 T01730067  RH  050%=      5-min Rain = 0
KAI1 092159Z 08008KT 17/07 A3001 RMK A01 T01730067  RH  050%=      5-min Rain = 0
KAI1 092200Z 08009KT 17/07 A30 RMK A01 T01730067  RH  050%=      5-min Rain = 0
KAI1 092201Z 08010KT 17/07 A30 RMK A01 T01730068  RH  050%=      5-min Rain = 0
KAI1 092202Z 08011KT 17/07 A30 RMK A01 T01730067  RH  050%=      5-min Rain = 0
KAI1 092203Z 07011KT 17/07 A30 RMK A01 T01730067  RH  050%=      5-min Rain = 0
KAI1 092204Z 07010KT 17/07 A30 RMK A01 T01720066  RH  050%=      5-min Rain = 0
KAI1 092205Z 08009KT 17/07 A30 RMK A01 T01720067  RH  050%=      5-min Rain = 0
KAI1 092206Z 07011KT 17/07 A30 RMK A01 T01720068  RH  050%=      5-min Rain = 0
KAI1 092207Z 08012KT 17/07 A30 RMK A01 T01720068  RH  051%=      5-min Rain = 0
KAI1 092208Z 07012KT 17/07 A30 RMK A01 T01720068  RH  050%=      5-min Rain = 0
KAI1 092209Z 07013KT 17/07 A30 RMK A01 T01720068  RH  050%=      5-min Rain = 0
KAI1 092210Z 07012KT 17/07 A30 RMK A01 T01730067  RH  050%=      5-min Rain = 0
KAI1 092211Z 08013KT 17/07 A30 RMK A01 T01730067  RH  050%=      5-min Rain = 0
KAI1 092212Z 07011KT 17/07 A30 RMK A01 T01730067  RH  050%=      5-min Rain = 0
KAI1 092213Z 07013KT 17/07 A30 RMK A01 T01740067  RH  050%=      5-min Rain = 0
KAI1 092214Z 07012KT 17/07 A30 RMK A01 T01740066  RH  049%=      5-min Rain = 0
KAI1 092215Z 07013KT 17/07 A30 RMK A01 T01730067  RH  050%=      5-min Rain = 0
KAI1 092216Z 06012KT 17/07 A30 RMK A01 T01730067  RH  050%=      5-min Rain = 0
KAI1 092217Z 07014KT 17/07 A30 RMK A01 T01740067  RH  049%=      5-min Rain = 0
KAI1 092218Z 06014KT 17/07 A30 RMK A01 T01740065  RH  049%=      5-min Rain = 0
KAI1 092219Z 07013KT 17/07 A30 RMK A01 T01720065  RH  049%=      5-min Rain = 0
KAI1 092220Z 07012KT 17/07 A30 RMK A01 T01730066  RH  049%=      5-min Rain = 0
KAI1 092221Z 06012KT 17/07 A30 RMK A01 T01740066  RH  049%=      5-min Rain = 0
KAI1 092222Z 07011KT 18/07 A30 RMK A01 T01750067  RH  049%=      5-min Rain = 0
KAI1 092223Z 07012KT 18/07 A30 RMK A01 T01750067  RH  049%=      5-min Rain = 0
KAI1 092224Z 07011KT 18/07 A30 RMK A01 T01760067  RH  049%=      5-min Rain = 0
KAI1 092225Z 06013KT 18/07 A3001 RMK A01 T01750066  RH  049%=      5-min Rain = 0
KAI1 092226Z 06013KT 17/07 A3001 RMK A01 T01740065  RH  049%=      5-min Rain = 0
KAI1 092227Z 07012KT 17/07 A30 RMK A01 T01730066  RH  049%=      5-min Rain = 0
KAI1 092228Z 07014KT 17/07 A3001 RMK A01 T01740067  RH  049%=      5-min Rain = 0
KAI1 092229Z 06014KT 18/07 A3001 RMK A01 T01750066  RH  049%=      5-min Rain = 0
KAI1 092230Z 07011KT 17/07 A3001 RMK A01 T01730066  RH  049%=      5-min Rain = 0
KAI1 092231Z 08011KT 17/07 A3001 RMK A01 T01730066  RH  049%=      5-min Rain = 0
KAI1 092232Z 07013KT 17/07 A3001 RMK A01 T01730066  RH  049%=      5-min Rain = 0
KAI1 092233Z 07013KT 17/06 A3001 RMK A01 T01720064  RH  049%=      5-min Rain = 0
KAI1 092234Z 07012KT 17/06 A3001 RMK A01 T01710064  RH  050%=      5-min Rain = 0
KAI1 092235Z 06013KT 17/07 A3001 RMK A01 T01700065  RH  050%=      5-min Rain = 0
KAI1 092236Z 07012KT 17/07 A3001 RMK A01 T01710065  RH  050%=      5-min Rain = 0
KAI1 092237Z 08013KT 17/07 A3001 RMK A01 T01710065  RH  050%=      5-min Rain = 0
KAI1 092238Z 07011KT 17/07 A3001 RMK A01 T01710065  RH  050%=      5-min Rain = 0
KAI1 092239Z 07013KT 17/06 A3001 RMK A01 T01700064  RH  050%=      5-min Rain = 0
KAI1 092240Z 07012KT 17/06 A3001 RMK A01 T01700064  RH  050%=      5-min Rain = 0
KAI1 092241Z 07011KT 17/06 A3001 RMK A01 T01690064  RH  050%=      5-min Rain = 0
KAI1 092242Z 06010KT 17/06 A3001 RMK A01 T01690064  RH  050%=      5-min Rain = 0
KAI1 092243Z 07009KT 17/07 A3001 RMK A01 T01680065  RH  050%=      5-min Rain = 0
KAI1 092244Z 08009KT 17/06 A3001 RMK A01 T01690064  RH  050%=      5-min Rain = 0
KAI1 092245Z 08008KT 17/07 A3001 RMK A01 T01700065  RH  050%=      5-min Rain = 0
KAI1 092246Z 08008KT 17/07 A3001 RMK A01 T01710065  RH  050%=      5-min Rain = 0
KAI1 092247Z 06008KT 17/07 A3002 RMK A01 T01710065  RH  050%=      5-min Rain = 0
KAI1 092248Z 08010KT 17/07 A3002 RMK A01 T01720066  RH  050%=      5-min Rain = 0
KAI1 092249Z 08010KT 17/07 A3002 RMK A01 T01720065  RH  050%=      5-min Rain = 0
KAI1 092250Z 08010KT 17/07 A3002 RMK A01 T01710065  RH  050%=      5-min Rain = 0
KAI1 092251Z 08011KT 17/07 A3002 RMK A01 T01700065  RH  050%=      5-min Rain = 0
KAI1 092252Z 08009KT 17/07 A3002 RMK A01 T01690065  RH  050%=      5-min Rain = 0
KAI1 092253Z 08009KT 17/07 A3002 RMK A01 T01690066  RH  050%=      5-min Rain = 0
KAI1 092254Z 08011KT 17/07 A3002 RMK A01 T01700066  RH  050%=      5-min Rain = 0
KAI1 092255Z 08012KT 17/07 A3002 RMK A01 T01690066  RH  050%=      5-min Rain = 0
KAI1 092256Z 08012KT 17/07 A3002 RMK A01 T01680065  RH  050%=      5-min Rain = 0
KAI1 092257Z 08011KT 17/07 A3002 RMK A01 T01680065  RH  050%=      5-min Rain = 0
KAI1 092258Z 08011KT 17/07 A3002 RMK A01 T01680065  RH  051%=      5-min Rain = 0
KAI1 092259Z 08011KT 17/06 A3002 RMK A01 T01670064  RH  051%=      5-min Rain = 0
KAI1 092300Z 08011KT 17/06 A3001 RMK A01 T01670064  RH  051%=      5-min Rain = 0
KAI1 092301Z 07010KT 17/06 A3001 RMK A01 T01660064  RH  051%=      5-min Rain = 0
KAI1 092302Z 08011KT 17/07 A3001 RMK A01 T01660065  RH  051%=      5-min Rain = 0
KAI1 092303Z 08010KT 17/07 A3001 RMK A01 T01660065  RH  051%=      5-min Rain = 0
KAI1 092304Z 08011KT 17/07 A3001 RMK A01 T01670065  RH  051%=      5-min Rain = 0
KAI1 092305Z 08011KT 17/06 A3001 RMK A01 T01670064  RH  051%=      5-min Rain = 0
KAI1 092306Z 08012KT 17/06 A3001 RMK A01 T01670064  RH  051%=      5-min Rain = 0
KAI1 092307Z 07011KT 17/07 A3001 RMK A01 T01670065  RH  051%=      5-min Rain = 0
KAI1 092308Z 08010KT 17/07 A3001 RMK A01 T01670065  RH  051%=      5-min Rain = 0
KAI1 092309Z 08010KT 17/07 A3001 RMK A01 T01670065  RH  051%=      5-min Rain = 0
KAI1 092310Z 08009KT 17/07 A3001 RMK A01 T01660065  RH  051%=      5-min Rain = 0
KAI1 092311Z 08011KT 17/07 A3001 RMK A01 T01670066  RH  051%=      5-min Rain = 0
KAI1 092312Z 09012KT 17/07 A3001 RMK A01 T01680065  RH  051%=      5-min Rain = 0
KAI1 092313Z 08011KT 17/06 A3001 RMK A01 T01670064  RH  051%=      5-min Rain = 0
KAI1 092314Z 08011KT 17/06 A3002 RMK A01 T01660064  RH  051%=      5-min Rain = 0
KAI1 092315Z 07011KT 17/06 A3002 RMK A01 T01660064  RH  051%=      5-min Rain = 0
KAI1 092316Z 07011KT 17/07 A3002 RMK A01 T01660065  RH  051%=      5-min Rain = 0
KAI1 092317Z 07012KT 17/06 A3002 RMK A01 T01670064  RH  051%=      5-min Rain = 0
KAI1 092318Z 07013KT 17/06 A3002 RMK A01 T01660064  RH  051%=      5-min Rain = 0
KAI1 092319Z 07012KT 17/06 A3002 RMK A01 T01660064  RH  051%=      5-min Rain = 0
KAI1 092320Z 07010KT 17/06 A3002 RMK A01 T01660063  RH  051%=      5-min Rain = 0
KAI1 092321Z 08010KT 17/06 A3002 RMK A01 T01650064  RH  051%=      5-min Rain = 0
KAI1 092322Z 08011KT 17/07 A3002 RMK A01 T01660065  RH  051%=      5-min Rain = 0
KAI1 092323Z 08011KT 17/07 A3002 RMK A01 T01670066  RH  051%=      5-min Rain = 0
KAI1 092324Z 09012KT 17/07 A3002 RMK A01 T01660065  RH  051%=      5-min Rain = 0
KAI1 092325Z 08011KT 17/06 A3002 RMK A01 T01660064  RH  051%=      5-min Rain = 0
KAI1 092326Z 07012KT 17/06 A3002 RMK A01 T01650064  RH  051%=      5-min Rain = 0
KAI1 092327Z 07010KT 17/06 A3002 RMK A01 T01650064  RH  051%=      5-min Rain = 0
KAI1 092328Z 07010KT 17/06 A3002 RMK A01 T01650064  RH  051%=      5-min Rain = 0
KAI1 092329Z 06012KT 17/06 A3002 RMK A01 T01650064  RH  051%=      5-min Rain = 0
KAI1 092330Z 07012KT 17/07 A3002 RMK A01 T01660065  RH  051%=      5-min Rain = 0
KAI1 092331Z 08010KT 17/07 A3002 RMK A01 T01660065  RH  051%=      5-min Rain = 0
KAI1 092332Z 08011KT 17/07 A3002 RMK A01 T01660065  RH  051%=      5-min Rain = 0
KAI1 092333Z 08010KT 17/06 A3002 RMK A01 T01660064  RH  051%=      5-min Rain = 0
KAI1 092334Z 07011KT 17/06 A3002 RMK A01 T01650064  RH  051%=      5-min Rain = 0
KAI1 092335Z 07012KT 17/06 A3002 RMK A01 T01650063  RH  051%=      5-min Rain = 0
KAI1 092336Z 08009KT 16/06 A3002 RMK A01 T01640064  RH  052%=      5-min Rain = 0
KAI1 092337Z 08012KT 16/06 A3002 RMK A01 T01640064  RH  051%=      5-min Rain = 0
KAI1 092338Z 08011KT 16/06 A3002 RMK A01 T01640063  RH  051%=      5-min Rain = 0
KAI1 092339Z 08012KT 16/06 A3002 RMK A01 T01630063  RH  052%=      5-min Rain = 0
KAI1 092340Z 08012KT 16/06 A3002 RMK A01 T01630064  RH  052%=      5-min Rain = 0
KAI1 092341Z 08012KT 16/06 A3002 RMK A01 T01620064  RH  052%=      5-min Rain = 0
KAI1 092342Z 08011KT 16/06 A3002 RMK A01 T01620063  RH  052%=      5-min Rain = 0
KAI1 092343Z 08012KT 16/06 A3002 RMK A01 T01620063  RH  052%=      5-min Rain = 0
KAI1 092344Z 08010KT 16/06 A3002 RMK A01 T01630064  RH  052%=      5-min Rain = 0
KAI1 092345Z 08012KT 16/06 A3002 RMK A01 T01620063  RH  052%=      5-min Rain = 0
KAI1 092346Z 08012KT 16/06 A3002 RMK A01 T01620063  RH  052%=      5-min Rain = 0
KAI1 092347Z 08011KT 16/06 A3002 RMK A01 T01620062  RH  052%=      5-min Rain = 0
KAI1 092348Z 09011KT 16/06 A3002 RMK A01 T01620063  RH  052%=      5-min Rain = 0
KAI1 092349Z 09010KT 16/06 A3002 RMK A01 T01620063  RH  052%=      5-min Rain = 0
KAI1 092350Z 09010KT 16/06 A3002 RMK A01 T01610062  RH  052%=      5-min Rain = 0
KAI1 092351Z 09009KT 16/06 A3002 RMK A01 T01610063  RH  052%=      5-min Rain = 0
KAI1 092352Z 08008KT 16/06 A3002 RMK A01 T01610063  RH  052%=      5-min Rain = 0
KAI1 092353Z 09009KT 16/06 A3002 RMK A01 T01620064  RH  052%=      5-min Rain = 0
KAI1 092354Z 09010KT 16/06 A3002 RMK A01 T01620063  RH  052%=      5-min Rain = 0
KAI1 092355Z 09010KT 16/06 A3002 RMK A01 T01620064  RH  052%=      5-min Rain = 0
KAI1 092356Z 09008KT 16/06 A3002 RMK A01 T01610063  RH  052%=      5-min Rain = 0
KAI1 092357Z 08009KT 16/06 A3002 RMK A01 T01610063  RH  052%=      5-min Rain = 0
KAI1 092358Z 08009KT 16/06 A3002 RMK A01 T01620062  RH  052%=      5-min Rain = 0
KAI1 092359Z 08011KT 16/06 A3002 RMK A01 T01620063  RH  052%=      5-min Rain = 0
KAI1 100000Z 08012KT 16/06 A3002 RMK A01 T01610063  RH  052%=      5-min Rain = 0
KAI1 100001Z 08011KT 16/06 A3002 RMK A01 T01600063  RH  053%=      5-min Rain = 0
KAI1 100002Z 09010KT 16/06 A3002 RMK A01 T01600063  RH  053%=      5-min Rain = 0
KAI1 100003Z 09012KT 16/06 A3001 RMK A01 T01600063  RH  053%=      5-min Rain = 0
KAI1 100004Z 09011KT 16/06 A3001 RMK A01 T01600063  RH  053%=      5-min Rain = 0
KAI1 100005Z 10011KT 16/06 A3001 RMK A01 T01600063  RH  053%=      5-min Rain = 0
KAI1 100006Z 10012KT 16/06 A3002 RMK A01 T01600063  RH  053%=      5-min Rain = 0
KAI1 100007Z 10010KT 16/06 A3002 RMK A01 T01590063  RH  053%=      5-min Rain = 0
KAI1 100008Z 09008KT 16/06 A3001 RMK A01 T01590063  RH  053%=      5-min Rain = 0
KAI1 100009Z 09009KT 16/06 A3002 RMK A01 T01600064  RH  053%=      5-min Rain = 0
KAI1 100010Z 09009KT 16/06 A3002 RMK A01 T01600064  RH  053%=      5-min Rain = 0
KAI1 100011Z 09010KT 16/06 A3002 RMK A01 T01600063  RH  053%=      5-min Rain = 0
KAI1 100012Z 09010KT 16/06 A3002 RMK A01 T01600064  RH  053%=      5-min Rain = 0
KAI1 100013Z 09009KT 16/07 A3002 RMK A01 T01600065  RH  053%=      5-min Rain = 0
KAI1 100014Z 09010KT 16/07 A3002 RMK A01 T01600065  RH  053%=      5-min Rain = 0
KAI1 100015Z 08010KT 16/06 A3002 RMK A01 T01590064  RH  053%=      5-min Rain = 0
KAI1 100016Z 09010KT 16/06 A3002 RMK A01 T01590064  RH  053%=      5-min Rain = 0
KAI1 100017Z 09010KT 16/06 A3002 RMK A01 T01590064  RH  053%=      5-min Rain = 0
KAI1 100018Z 08010KT 16/06 A3002 RMK A01 T01590064  RH  053%=      5-min Rain = 0
KAI1 100019Z 08009KT 16/06 A3002 RMK A01 T01590063  RH  053%=      5-min Rain = 0
KAI1 100020Z 09011KT 16/06 A3002 RMK A01 T01590063  RH  053%=      5-min Rain = 0
KAI1 100021Z 09008KT 16/06 A3002 RMK A01 T01580063  RH  053%=      5-min Rain = 0
KAI1 100022Z 09009KT 16/06 A3002 RMK A01 T01580063  RH  053%=      5-min Rain = 0
KAI1 100023Z 08010KT 16/06 A3002 RMK A01 T01580063  RH  053%=      5-min Rain = 0
KAI1 100024Z 09011KT 16/06 A3002 RMK A01 T01580063  RH  053%=      5-min Rain = 0
KAI1 100025Z 09010KT 16/06 A3003 RMK A01 T01570062  RH  053%=      5-min Rain = 0
KAI1 100026Z 09010KT 16/06 A3003 RMK A01 T01570062  RH  053%=      5-min Rain = 0
KAI1 100027Z 09010KT 16/06 A3003 RMK A01 T01570062  RH  053%=      5-min Rain = 0
KAI1 100028Z 09010KT 16/06 A3003 RMK A01 T01570063  RH  053%=      5-min Rain = 0
KAI1 100029Z 08010KT 16/06 A3003 RMK A01 T01570063  RH  054%=      5-min Rain = 0
KAI1 100030Z 08008KT 16/06 A3003 RMK A01 T01560063  RH  054%=      5-min Rain = 0
KAI1 100031Z 07010KT 16/06 A3003 RMK A01 T01560064  RH  054%=      5-min Rain = 0
KAI1 100032Z 08010KT 16/06 A3003 RMK A01 T01560063  RH  054%=      5-min Rain = 0
KAI1 100033Z 08010KT 16/06 A3003 RMK A01 T01550063  RH  054%=      5-min Rain = 0
KAI1 100034Z 08010KT 16/06 A3003 RMK A01 T01550063  RH  054%=      5-min Rain = 0
KAI1 100035Z 08010KT 16/06 A3003 RMK A01 T01550063  RH  054%=      5-min Rain = 0
KAI1 100036Z 08011KT 16/06 A3003 RMK A01 T01550063  RH  054%=      5-min Rain = 0
KAI1 100037Z 08011KT 16/06 A3003 RMK A01 T01550063  RH  054%=      5-min Rain = 0
KAI1 100038Z 08010KT 15/06 A3003 RMK A01 T01540063  RH  054%=      5-min Rain = 0
KAI1 100039Z 08010KT 15/06 A3003 RMK A01 T01540063  RH  054%=      5-min Rain = 0
KAI1 100040Z 09011KT 15/06 A3003 RMK A01 T01540063  RH  054%=      5-min Rain = 0
KAI1 100041Z 09012KT 15/06 A3002 RMK A01 T01540063  RH  054%=      5-min Rain = 0
KAI1 100042Z 09010KT 15/06 A3002 RMK A01 T01540062  RH  054%=      5-min Rain = 0
KAI1 100043Z 09009KT 15/06 A3002 RMK A01 T01540062  RH  054%=      5-min Rain = 0
KAI1 100044Z 09010KT 15/06 A3002 RMK A01 T01540063  RH  055%=      5-min Rain = 0
KAI1 100045Z 09010KT 15/06 A3002 RMK A01 T01530062  RH  055%=      5-min Rain = 0
KAI1 100046Z 09010KT 15/06 A3002 RMK A01 T01530062  RH  055%=      5-min Rain = 0
KAI1 100047Z 09009KT 15/06 A3003 RMK A01 T01530062  RH  055%=      5-min Rain = 0
KAI1 100048Z 09009KT 15/06 A3003 RMK A01 T01520062  RH  055%=      5-min Rain = 0
KAI1 100049Z 09010KT 15/06 A3003 RMK A01 T01520063  RH  055%=      5-min Rain = 0
KAI1 100050Z 09009KT 15/06 A3003 RMK A01 T01520063  RH  055%=      5-min Rain = 0
KAI1 100051Z 09009KT 15/06 A3003 RMK A01 T01510063  RH  055%=      5-min Rain = 0
KAI1 100052Z 08008KT 15/06 A3003 RMK A01 T01510063  RH  056%=      5-min Rain = 0
KAI1 100053Z 09008KT 15/06 A3003 RMK A01 T01510063  RH  055%=      5-min Rain = 0
KAI1 100054Z 09009KT 15/06 A3003 RMK A01 T01510062  RH  055%=      5-min Rain = 0
KAI1 100055Z 09008KT 15/06 A3003 RMK A01 T01510063  RH  055%=      5-min Rain = 0
KAI1 100056Z 09009KT 15/06 A3003 RMK A01 T01510062  RH  055%=      5-min Rain = 0
KAI1 100057Z 09009KT 15/06 A3003 RMK A01 T01510062  RH  055%=      5-min Rain = 0
KAI1 100058Z 09009KT 15/06 A3003 RMK A01 T01510061  RH  055%=      5-min Rain = 0
KAI1 100059Z 09009KT 15/06 A3003 RMK A01 T01510061  RH  055%=      5-min Rain = 0
KAI1 100100Z 09010KT 15/06 A3003 RMK A01 T01500060  RH  055%=      5-min Rain = 0
KAI1 100101Z 09009KT 15/06 A3003 RMK A01 T01500061  RH  055%=      5-min Rain = 0
KAI1 100102Z 10010KT 15/06 A3003 RMK A01 T01500061  RH  055%=      5-min Rain = 0
KAI1 100103Z 10010KT 15/06 A3003 RMK A01 T01490061  RH  055%=      5-min Rain = 0
KAI1 100104Z 10010KT 15/06 A3003 RMK A01 T01500061  RH  055%=      5-min Rain = 0
KAI1 100105Z 10009KT 15/06 A3003 RMK A01 T01500060  RH  055%=      5-min Rain = 0
KAI1 100106Z 10010KT 15/06 A3003 RMK A01 T01490060  RH  055%=      5-min Rain = 0
KAI1 100107Z 09009KT 15/06 A3003 RMK A01 T01490060  RH  055%=      5-min Rain = 0
KAI1 100108Z 10010KT 15/06 A3003 RMK A01 T01490060  RH  055%=      5-min Rain = 0
KAI1 100109Z 09008KT 15/06 A3003 RMK A01 T01490060  RH  055%=      5-min Rain = 0
KAI1 100110Z 10010KT 15/06 A3003 RMK A01 T01480059  RH  055%=      5-min Rain = 0
KAI1 100111Z 09010KT 15/06 A3003 RMK A01 T01480059  RH  055%=      5-min Rain = 0
KAI1 100112Z 10009KT 15/06 A3003 RMK A01 T01480059  RH  055%=      5-min Rain = 0
KAI1 100113Z 10009KT 15/06 A3003 RMK A01 T01480059  RH  055%=      5-min Rain = 0
KAI1 100114Z 10009KT 15/06 A3003 RMK A01 T01480059  RH  055%=      5-min Rain = 0
KAI1 100115Z 10008KT 15/06 A3003 RMK A01 T01470058  RH  055%=      5-min Rain = 0
KAI1 100116Z 09010KT 15/06 A3003 RMK A01 T01470058  RH  055%=      5-min Rain = 0
KAI1 100117Z 09008KT 15/06 A3003 RMK A01 T01470058  RH  055%=      5-min Rain = 0
KAI1 100118Z 09009KT 15/06 A3003 RMK A01 T01460058  RH  056%=      5-min Rain = 0
KAI1 100119Z 09008KT 15/06 A3003 RMK A01 T01460059  RH  056%=      5-min Rain = 0
KAI1 100120Z 09008KT 15/06 A3003 RMK A01 T01460058  RH  056%=      5-min Rain = 0
KAI1 100121Z 09008KT 15/06 A3003 RMK A01 T01450058  RH  056%=      5-min Rain = 0
KAI1 100122Z 09008KT 15/06 A3003 RMK A01 T01450058  RH  056%=      5-min Rain = 0
KAI1 100123Z 08009KT 15/06 A3003 RMK A01 T01460059  RH  056%=      5-min Rain = 0
KAI1 100124Z 08009KT 15/06 A3003 RMK A01 T01450058  RH  056%=      5-min Rain = 0
KAI1 100125Z 08011KT 15/06 A3003 RMK A01 T01450058  RH  056%=      5-min Rain = 0
KAI1 100126Z 08010KT 15/06 A3003 RMK A01 T01450057  RH  056%=      5-min Rain = 0
KAI1 100127Z 08009KT 15/06 A3003 RMK A01 T01450058  RH  056%=      5-min Rain = 0
KAI1 100128Z 08009KT 15/06 A3004 RMK A01 T01460058  RH  056%=      5-min Rain = 0
KAI1 100129Z 08009KT 15/06 A3004 RMK A01 T01450058  RH  056%=      5-min Rain = 0
KAI1 100130Z 08008KT 15/06 A3004 RMK A01 T01450058  RH  056%=      5-min Rain = 0
KAI1 100131Z 08009KT 14/06 A3004 RMK A01 T01440058  RH  056%=      5-min Rain = 0
KAI1 100132Z 08009KT 14/06 A3004 RMK A01 T01440058  RH  056%=      5-min Rain = 0
KAI1 100133Z 08008KT 14/06 A3004 RMK A01 T01440058  RH  056%=      5-min Rain = 0
KAI1 100134Z 08009KT 14/06 A3004 RMK A01 T01430058  RH  057%=      5-min Rain = 0
KAI1 100135Z 08008KT 14/06 A3004 RMK A01 T01430058  RH  057%=      5-min Rain = 0
KAI1 100136Z 08008KT 14/06 A3004 RMK A01 T01430058  RH  056%=      5-min Rain = 0
KAI1 100137Z 08008KT 14/06 A3004 RMK A01 T01430057  RH  057%=      5-min Rain = 0
KAI1 100138Z 08007KT 14/06 A3004 RMK A01 T01430058  RH  057%=      5-min Rain = 0
KAI1 100139Z 08008KT 14/06 A3004 RMK A01 T01420057  RH  057%=      5-min Rain = 0
KAI1 100140Z 09008KT 14/06 A3004 RMK A01 T01420057  RH  057%=      5-min Rain = 0
KAI1 100141Z 09009KT 14/06 A3004 RMK A01 T01410057  RH  057%=      5-min Rain = 0
KAI1 100142Z 09010KT 14/06 A3004 RMK A01 T01410057  RH  057%=      5-min Rain = 0
KAI1 100143Z 09010KT 14/06 A3004 RMK A01 T01410058  RH  057%=      5-min Rain = 0
KAI1 100144Z 09010KT 14/06 A3004 RMK A01 T01410058  RH  057%=      5-min Rain = 0
KAI1 100145Z 09011KT 14/06 A3004 RMK A01 T01410058  RH  057%=      5-min Rain = 0
KAI1 100146Z 09010KT 14/06 A3004 RMK A01 T01400058  RH  057%=      5-min Rain = 0
KAI1 100147Z 09010KT 14/06 A3004 RMK A01 T01400058  RH  058%=      5-min Rain = 0
KAI1 100148Z 09011KT 14/06 A3004 RMK A01 T01400058  RH  058%=      5-min Rain = 0
KAI1 100149Z 09011KT 14/06 A3004 RMK A01 T01400058  RH  058%=      5-min Rain = 0
KAI1 100150Z 09010KT 14/06 A3004 RMK A01 T01390057  RH  058%=      5-min Rain = 0
KAI1 100151Z 09010KT 14/06 A3004 RMK A01 T01390057  RH  058%=      5-min Rain = 0
KAI1 100152Z 09010KT 14/06 A3004 RMK A01 T01390057  RH  058%=      5-min Rain = 0
KAI1 100153Z 09010KT 14/06 A3004 RMK A01 T01390057  RH  058%=      5-min Rain = 0
KAI1 100154Z 09010KT 14/06 A3004 RMK A01 T01380057  RH  058%=      5-min Rain = 0
KAI1 100155Z 09009KT 14/06 A3004 RMK A01 T01380057  RH  058%=      5-min Rain = 0
KAI1 100156Z 09009KT 14/06 A3004 RMK A01 T01370056  RH  058%=      5-min Rain = 0
KAI1 100157Z 09009KT 14/06 A3004 RMK A01 T01360056  RH  058%=      5-min Rain = 0
KAI1 100158Z 10010KT 14/06 A3004 RMK A01 T01370057  RH  058%=      5-min Rain = 0
KAI1 100159Z 10009KT 14/06 A3004 RMK A01 T01360056  RH  058%=      5-min Rain = 0
KAI1 100200Z 10010KT 14/06 A3004 RMK A01 T01360056  RH  059%=      5-min Rain = 0
KAI1 100201Z 10010KT 14/06 A3004 RMK A01 T01350056  RH  059%=      5-min Rain = 0
KAI1 100202Z 10011KT 14/06 A3004 RMK A01 T01350056  RH  059%=      5-min Rain = 0
KAI1 100203Z 10011KT 14/06 A3004 RMK A01 T01350055  RH  059%=      5-min Rain = 0
KAI1 100204Z 10010KT 14/06 A3004 RMK A01 T01350055  RH  058%=      5-min Rain = 0
KAI1 100205Z 10010KT 13/05 A3004 RMK A01 T01340054  RH  058%=      5-min Rain = 0
KAI1 100206Z 10010KT 13/05 A3004 RMK A01 T01330054  RH  059%=      5-min Rain = 0
KAI1 100207Z 10010KT 13/05 A3004 RMK A01 T01330054  RH  059%=      5-min Rain = 0
KAI1 100208Z 10009KT 13/05 A3005 RMK A01 T01330054  RH  059%=      5-min Rain = 0
KAI1 100209Z 09009KT 13/05 A3005 RMK A01 T01320054  RH  059%=      5-min Rain = 0
KAI1 100210Z 09008KT 13/05 A3005 RMK A01 T01320054  RH  059%=      5-min Rain = 0
KAI1 100211Z 08008KT 13/05 A3005 RMK A01 T01320054  RH  059%=      5-min Rain = 0
KAI1 100212Z 08008KT 13/06 A3005 RMK A01 T01310055  RH  060%=      5-min Rain = 0
KAI1 100213Z 08009KT 13/06 A3005 RMK A01 T01310055  RH  060%=      5-min Rain = 0
KAI1 100214Z 08009KT 13/06 A3005 RMK A01 T01300055  RH  060%=      5-min Rain = 0
KAI1 100215Z 09008KT 13/06 A3005 RMK A01 T01300055  RH  060%=      5-min Rain = 0
KAI1 100216Z 09008KT 13/05 A3005 RMK A01 T01290054  RH  061%=      5-min Rain = 0
KAI1 100217Z 09008KT 13/06 A3005 RMK A01 T01280055  RH  061%=      5-min Rain = 0
KAI1 100218Z 09009KT 13/05 A3005 RMK A01 T01270054  RH  061%=      5-min Rain = 0
KAI1 100219Z 09009KT 13/05 A3006 RMK A01 T01260054  RH  062%=      5-min Rain = 0
KAI1 100220Z 09009KT 13/05 A3006 RMK A01 T01260054  RH  062%=      5-min Rain = 0
KAI1 100221Z 09008KT 13/06 A3006 RMK A01 T01260055  RH  062%=      5-min Rain = 0
KAI1 100222Z 09009KT 13/05 A3006 RMK A01 T01260054  RH  062%=      5-min Rain = 0
KAI1 100223Z 08009KT 13/06 A3006 RMK A01 T01260055  RH  062%=      5-min Rain = 0
KAI1 100224Z 09008KT 13/06 A3006 RMK A01 T01260055  RH  062%=      5-min Rain = 0
KAI1 100225Z 09008KT 13/06 A3006 RMK A01 T01250055  RH  062%=      5-min Rain = 0
KAI1 100226Z 09008KT 13/06 A3006 RMK A01 T01250055  RH  062%=      5-min Rain = 0
KAI1 100227Z 09008KT 13/06 A3006 RMK A01 T01250055  RH  062%=      5-min Rain = 0
KAI1 100228Z 09008KT 12/06 A3006 RMK A01 T01240055  RH  063%=      5-min Rain = 0
KAI1 100229Z 09008KT 12/06 A3006 RMK A01 T01240055  RH  063%=      5-min Rain = 0
KAI1 100230Z 09008KT 12/06 A3006 RMK A01 T01240056  RH  063%=      5-min Rain = 0
KAI1 100231Z 09008KT 12/06 A3006 RMK A01 T01240056  RH  063%=      5-min Rain = 0
KAI1 100232Z 09008KT 12/06 A3006 RMK A01 T01240056  RH  063%=      5-min Rain = 0
KAI1 100233Z 09008KT 12/06 A3006 RMK A01 T01240056  RH  063%=      5-min Rain = 0
KAI1 100234Z 09008KT 12/06 A3006 RMK A01 T01240057  RH  063%=      5-min Rain = 0
KAI1 100235Z 09008KT 12/06 A3006 RMK A01 T01240057  RH  063%=      5-min Rain = 0
KAI1 100236Z 10008KT 12/06 A3006 RMK A01 T01240057  RH  064%=      5-min Rain = 0
KAI1 100237Z 10009KT 12/06 A3006 RMK A01 T01230056  RH  064%=      5-min Rain = 0
KAI1 100238Z 10009KT 12/06 A3006 RMK A01 T01230057  RH  064%=      5-min Rain = 0
KAI1 100239Z 10009KT 12/06 A3006 RMK A01 T01230057  RH  064%=      5-min Rain = 0
KAI1 100240Z 10008KT 12/06 A3006 RMK A01 T01230056  RH  064%=      5-min Rain = 0
KAI1 100241Z 10009KT 12/06 A3006 RMK A01 T01230056  RH  064%=      5-min Rain = 0
KAI1 100242Z 11009KT 12/06 A3006 RMK A01 T01230056  RH  064%=      5-min Rain = 0
KAI1 100243Z 11008KT 12/06 A3006 RMK A01 T01230055  RH  064%=      5-min Rain = 0
KAI1 100244Z 11009KT 12/06 A3006 RMK A01 T01220055  RH  064%=      5-min Rain = 0
KAI1 100245Z 11009KT 12/06 A3006 RMK A01 T01220055  RH  064%=      5-min Rain = 0
KAI1 100246Z 11009KT 12/06 A3006 RMK A01 T01210055  RH  064%=      5-min Rain = 0
KAI1 100247Z 11009KT 12/06 A3006 RMK A01 T01220055  RH  064%=      5-min Rain = 0
KAI1 100248Z 11008KT 12/05 A3006 RMK A01 T01220054  RH  063%=      5-min Rain = 0
KAI1 100249Z 10008KT 12/05 A3006 RMK A01 T01210054  RH  063%=      5-min Rain = 0
KAI1 100250Z 10008KT 12/05 A3006 RMK A01 T01210054  RH  063%=      5-min Rain = 0
KAI1 100251Z 10008KT 12/05 A3006 RMK A01 T01210054  RH  063%=      5-min Rain = 0
KAI1 100252Z 10008KT 12/05 A3006 RMK A01 T01210054  RH  063%=      5-min Rain = 0
KAI1 100253Z 10007KT 12/05 A3007 RMK A01 T01210054  RH  063%=      5-min Rain = 0
KAI1 100254Z 10006KT 12/05 A3007 RMK A01 T01210054  RH  064%=      5-min Rain = 0
KAI1 100255Z 09006KT 12/05 A3007 RMK A01 T01200053  RH  064%=      5-min Rain = 0
KAI1 100256Z 09007KT 12/05 A3007 RMK A01 T01200054  RH  064%=      5-min Rain = 0
KAI1 100257Z 09007KT 12/05 A3007 RMK A01 T01190054  RH  064%=      5-min Rain = 0
KAI1 100258Z 09007KT 12/05 A3007 RMK A01 T01190054  RH  064%=      5-min Rain = 0
KAI1 100259Z 09008KT 12/06 A3007 RMK A01 T01200055  RH  064%=      5-min Rain = 0
KAI1 100300Z 09008KT 12/06 A3007 RMK A01 T01200055  RH  064%=      5-min Rain = 0
KAI1 100301Z 10009KT 12/06 A3007 RMK A01 T01200055  RH  064%=      5-min Rain = 0
KAI1 100302Z 10010KT 12/06 A3007 RMK A01 T01210055  RH  064%=      5-min Rain = 0
KAI1 100303Z 10010KT 12/06 A3006 RMK A01 T01200055  RH  064%=      5-min Rain = 0
KAI1 100304Z 10010KT 12/06 A3006 RMK A01 T01210055  RH  064%=      5-min Rain = 0
KAI1 100305Z 10010KT 12/06 A3006 RMK A01 T01210056  RH  064%=      5-min Rain = 0
KAI1 100306Z 10011KT 12/06 A3006 RMK A01 T01210055  RH  064%=      5-min Rain = 0
KAI1 100307Z 10010KT 12/06 A3007 RMK A01 T01210055  RH  064%=      5-min Rain = 0
KAI1 100308Z 10010KT 12/06 A3007 RMK A01 T01210055  RH  064%=      5-min Rain = 0
KAI1 100309Z 10009KT 12/06 A3007 RMK A01 T01210055  RH  064%=      5-min Rain = 0
KAI1 100310Z 09008KT 12/06 A3007 RMK A01 T01210055  RH  064%=      5-min Rain = 0
KAI1 100311Z 09008KT 12/06 A3007 RMK A01 T01210055  RH  064%=      5-min Rain = 0
KAI1 100312Z 08009KT 12/06 A3008 RMK A01 T01200056  RH  065%=      5-min Rain = 0
KAI1 100313Z 08008KT 12/06 A3008 RMK A01 T01210056  RH  065%=      5-min Rain = 0
KAI1 100314Z 08008KT 12/06 A3008 RMK A01 T01200055  RH  065%=      5-min Rain = 0
KAI1 100315Z 08009KT 12/06 A3008 RMK A01 T01190055  RH  065%=      5-min Rain = 0
KAI1 100316Z 09010KT 12/06 A3008 RMK A01 T01190055  RH  065%=      5-min Rain = 0
KAI1 100317Z 09011KT 12/06 A3007 RMK A01 T01190055  RH  065%=      5-min Rain = 0
KAI1 100318Z 09012KT 12/05 A3007 RMK A01 T01190054  RH  065%=      5-min Rain = 0
KAI1 100319Z 09012KT 12/05 A3007 RMK A01 T01190054  RH  064%=      5-min Rain = 0
KAI1 100320Z 09011KT 12/05 A3007 RMK A01 T01190054  RH  064%=      5-min Rain = 0
KAI1 100321Z 09012KT 12/05 A3007 RMK A01 T01190054  RH  064%=      5-min Rain = 0
KAI1 100322Z 09012KT 12/05 A3007 RMK A01 T01190054  RH  064%=      5-min Rain = 0
KAI1 100323Z 09010KT 12/05 A3007 RMK A01 T01190054  RH  064%=      5-min Rain = 0
KAI1 100324Z 09011KT 12/05 A3007 RMK A01 T01190054  RH  064%=      5-min Rain = 0
KAI1 100325Z 09011KT 12/05 A3007 RMK A01 T01190053  RH  064%=      5-min Rain = 0
KAI1 100326Z 09011KT 12/05 A3007 RMK A01 T01180053  RH  064%=      5-min Rain = 0
KAI1 100327Z 09012KT 12/05 A3007 RMK A01 T01180052  RH  064%=      5-min Rain = 0
KAI1 100328Z 09014KT 12/05 A3007 RMK A01 T01180051  RH  064%=      5-min Rain = 0
KAI1 100329Z 09012KT 12/05 A3007 RMK A01 T01190050  RH  063%=      5-min Rain = 0
KAI1 100330Z 09013KT 12/05 A3007 RMK A01 T01190050  RH  063%=      5-min Rain = 0
KAI1 100331Z 09014KT 12/05 A3007 RMK A01 T01190049  RH  062%=      5-min Rain = 0
KAI1 100332Z 08013KT 12/05 A3007 RMK A01 T01190048  RH  062%=      5-min Rain = 0
KAI1 100333Z 09012KT 12/05 A3007 RMK A01 T01190048  RH  062%=      5-min Rain = 0
KAI1 100334Z 08013KT 12/05 A3007 RMK A01 T01190048  RH  061%=      5-min Rain = 0
KAI1 100335Z 08014KT 12/05 A3007 RMK A01 T01200047  RH  061%=      5-min Rain = 0
KAI1 100336Z 08013KT 12/05 A3008 RMK A01 T01200047  RH  061%=      5-min Rain = 0
KAI1 100337Z 08012KT 12/05 A3008 RMK A01 T01200046  RH  061%=      5-min Rain = 0
KAI1 100338Z 08016KT 12/05 A3008 RMK A01 T01200045  RH  060%=      5-min Rain = 0
KAI1 100339Z 09015KT 12/04 A3008 RMK A01 T01200044  RH  060%=      5-min Rain = 0
KAI1 100340Z 08014KT 12/04 A3008 RMK A01 T01200044  RH  060%=      5-min Rain = 0
KAI1 100341Z 08016KT 12/04 A3008 RMK A01 T01200043  RH  060%=      5-min Rain = 0
KAI1 100342Z 08015KT 12/04 A3008 RMK A01 T01200043  RH  059%=      5-min Rain = 0
KAI1 100343Z 08015KT 12/04 A3008 RMK A01 T01190043  RH  059%=      5-min Rain = 0
KAI1 100344Z 08014KT 12/04 A3009 RMK A01 T01190042  RH  059%=      5-min Rain = 0
KAI1 100345Z 08013KT 12/04 A3009 RMK A01 T01180042  RH  060%=      5-min Rain = 0
KAI1 100346Z 07013KT 12/04 A3009 RMK A01 T01180042  RH  060%=      5-min Rain = 0
KAI1 100347Z 07013KT 12/04 A3009 RMK A01 T01170042  RH  060%=      5-min Rain = 0
KAI1 100348Z 07013KT 12/04 A301 RMK A01 T01160041  RH  060%=      5-min Rain = 0
KAI1 100349Z 07012KT 12/04 A301 RMK A01 T01160041  RH  060%=      5-min Rain = 0
KAI1 100350Z 06013KT 12/04 A301 RMK A01 T01150040  RH  060%=      5-min Rain = 0
KAI1 100351Z 06012KT 12/04 A301 RMK A01 T01150040  RH  060%=      5-min Rain = 0
KAI1 100352Z 06012KT 12/04 A301 RMK A01 T01150039  RH  060%=      5-min Rain = 0
KAI1 100353Z 07013KT 11/04 A301 RMK A01 T01140039  RH  060%=      5-min Rain = 0
KAI1 100354Z 07014KT 11/04 A301 RMK A01 T01140039  RH  060%=      5-min Rain = 0
KAI1 100355Z 06013KT 11/04 A301 RMK A01 T01130039  RH  060%=      5-min Rain = 0
KAI1 100356Z 07012KT 11/04 A301 RMK A01 T01130039  RH  060%=      5-min Rain = 0
KAI1 100357Z 07012KT 11/04 A301 RMK A01 T01130040  RH  061%=      5-min Rain = 0
KAI1 100358Z 07011KT 11/04 A301 RMK A01 T01120039  RH  061%=      5-min Rain = 0
KAI1 100359Z 07011KT 11/04 A301 RMK A01 T01110039  RH  061%=      5-min Rain = 0
KAI1 100400Z 07011KT 11/04 A301 RMK A01 T01110040  RH  062%=      5-min Rain = 0
KAI1 100401Z 07012KT 11/04 A301 RMK A01 T01090040  RH  062%=      5-min Rain = 0
KAI1 100402Z 07012KT 11/04 A301 RMK A01 T01090040  RH  062%=      5-min Rain = 0
KAI1 100403Z 07011KT 11/04 A301 RMK A01 T01090040  RH  062%=      5-min Rain = 0
KAI1 100404Z 07011KT 11/04 A301 RMK A01 T01080039  RH  062%=      5-min Rain = 0
KAI1 100405Z 07011KT 11/04 A301 RMK A01 T01080039  RH  063%=      5-min Rain = 0
KAI1 100406Z 07010KT 11/04 A301 RMK A01 T01070039  RH  063%=      5-min Rain = 0
KAI1 100407Z 07011KT 11/04 A301 RMK A01 T01060039  RH  063%=      5-min Rain = 0
KAI1 100408Z 08011KT 11/04 A301 RMK A01 T01060039  RH  063%=      5-min Rain = 0
KAI1 100409Z 07012KT 11/04 A301 RMK A01 T01060038  RH  063%=      5-min Rain = 0
KAI1 100410Z 07011KT 11/04 A3011 RMK A01 T01060038  RH  063%=      5-min Rain = 0
KAI1 100411Z 07010KT 11/04 A3011 RMK A01 T01060038  RH  063%=      5-min Rain = 0
KAI1 100412Z 07011KT 11/04 A3011 RMK A01 T01050038  RH  063%=      5-min Rain = 0
KAI1 100413Z 07011KT 11/04 A3011 RMK A01 T01050038  RH  063%=      5-min Rain = 0
KAI1 100414Z 07010KT 10/04 A3011 RMK A01 T01040038  RH  063%=      5-min Rain = 0
KAI1 100415Z 08009KT 10/04 A3011 RMK A01 T01040037  RH  063%=      5-min Rain = 0
KAI1 100416Z 08009KT 10/04 A3011 RMK A01 T01030037  RH  064%=      5-min Rain = 0
KAI1 100417Z 08009KT 10/04 A3011 RMK A01 T01020037  RH  064%=      5-min Rain = 0
KAI1 100418Z 08009KT 10/04 A3011 RMK A01 T01030037  RH  064%=      5-min Rain = 0
KAI1 100419Z 08009KT 10/04 A3011 RMK A01 T01030037  RH  064%=      5-min Rain = 0
KAI1 100420Z 07008KT 10/04 A3011 RMK A01 T01020036  RH  064%=      5-min Rain = 0
KAI1 100421Z 07010KT 10/04 A3011 RMK A01 T01010036  RH  064%=      5-min Rain = 0
KAI1 100422Z 07010KT 10/04 A3011 RMK A01 T01010036  RH  064%=      5-min Rain = 0
KAI1 100423Z 07011KT 10/04 A3011 RMK A01 T01010035  RH  064%=      5-min Rain = 0
KAI1 100424Z 07011KT 10/04 A3011 RMK A01 T01020035  RH  063%=      5-min Rain = 0
KAI1 100425Z 07010KT 10/03 A3011 RMK A01 T01020034  RH  063%=      5-min Rain = 0
KAI1 100426Z 07012KT 10/03 A3011 RMK A01 T01020034  RH  063%=      5-min Rain = 0
KAI1 100427Z 07011KT 10/03 A3011 RMK A01 T01020034  RH  063%=      5-min Rain = 0
KAI1 100428Z 07011KT 10/03 A3011 RMK A01 T01020034  RH  063%=      5-min Rain = 0
KAI1 100429Z 07012KT 10/03 A3011 RMK A01 T01010033  RH  063%=      5-min Rain = 0
KAI1 100430Z 08011KT 10/03 A3011 RMK A01 T01010033  RH  063%=      5-min Rain = 0
KAI1 100431Z 07011KT 10/03 A3011 RMK A01 T01000033  RH  063%=      5-min Rain = 0
KAI1 100432Z 07010KT 10/03 A3011 RMK A01 T01000033  RH  063%=      5-min Rain = 0
KAI1 100433Z 07011KT 10/03 A3011 RMK A01 T01000033  RH  063%=      5-min Rain = 0
KAI1 100434Z 07011KT 10/03 A3011 RMK A01 T01000032  RH  063%=      5-min Rain = 0
KAI1 100435Z 07012KT 10/03 A3011 RMK A01 T01000032  RH  063%=      5-min Rain = 0
KAI1 100436Z 07011KT 10/03 A3011 RMK A01 T01000031  RH  062%=      5-min Rain = 0
KAI1 100437Z 07012KT 10/03 A3011 RMK A01 T00990031  RH  062%=      5-min Rain = 0
KAI1 100438Z 07011KT 10/03 A3011 RMK A01 T01000031  RH  062%=      5-min Rain = 0
KAI1 100439Z 07011KT 10/03 A3011 RMK A01 T00990030  RH  062%=      5-min Rain = 0
KAI1 100440Z 07012KT 10/03 A3011 RMK A01 T00990030  RH  062%=      5-min Rain = 0
KAI1 100441Z 07013KT 10/03 A3011 RMK A01 T00980029  RH  062%=      5-min Rain = 0
KAI1 100442Z 07013KT 10/03 A3011 RMK A01 T00990029  RH  062%=      5-min Rain = 0
KAI1 100443Z 07013KT 10/03 A3011 RMK A01 T00990028  RH  061%=      5-min Rain = 0
KAI1 100444Z 07013KT 10/03 A3011 RMK A01 T00990028  RH  061%=      5-min Rain = 0
KAI1 100445Z 07012KT 10/03 A3011 RMK A01 T00990028  RH  061%=      5-min Rain = 0
KAI1 100446Z 07012KT 10/03 A3011 RMK A01 T00990028  RH  061%=      5-min Rain = 0
KAI1 100447Z 07014KT 10/03 A3011 RMK A01 T00990027  RH  061%=      5-min Rain = 0
KAI1 100448Z 07013KT 10/03 A3011 RMK A01 T00990027  RH  061%=      5-min Rain = 0
KAI1 100449Z 07012KT 10/03 A3011 RMK A01 T00990027  RH  061%=      5-min Rain = 0
KAI1 100450Z 07013KT 10/03 A3011 RMK A01 T00990027  RH  061%=      5-min Rain = 0
KAI1 100451Z 07014KT 10/03 A3011 RMK A01 T00980026  RH  061%=      5-min Rain = 0
KAI1 100452Z 07013KT 10/03 A3011 RMK A01 T00990026  RH  061%=      5-min Rain = 0
KAI1 100453Z 07014KT 10/03 A3011 RMK A01 T00980026  RH  061%=      5-min Rain = 0
KAI1 100454Z 07014KT 10/03 A3011 RMK A01 T00980026  RH  061%=      5-min Rain = 0
KAI1 100455Z 08014KT 10/03 A3011 RMK A01 T00990026  RH  060%=      5-min Rain = 0
KAI1 100456Z 07013KT 10/03 A3011 RMK A01 T00980025  RH  060%=      5-min Rain = 0
KAI1 100457Z 07012KT 10/03 A3011 RMK A01 T00980025  RH  060%=      5-min Rain = 0
KAI1 100458Z 07014KT 10/03 A3011 RMK A01 T00980025  RH  061%=      5-min Rain = 0
KAI1 100459Z 07013KT 10/03 A3011 RMK A01 T00980025  RH  061%=      5-min Rain = 0

Page generated in 0.1635 seconds.